Observation data for Bootleg on 10/14/2019      Previous  Date       Current Mesonet Observations  Soil Data  Daily Summary Page  Observations in Plain Language
KBO1 140500Z 23010KT 12/02 A3004 RMK A01 T01190021  RH  051%=      5-min Rain = 0
KBO1 140501Z 23010KT 12/02 A3004 RMK A01 T01180021  RH  051%=      5-min Rain = 0
KBO1 140502Z 23010KT 12/02 A3004 RMK A01 T01180021  RH  051%=      5-min Rain = 0
KBO1 140503Z 23009KT 12/02 A3004 RMK A01 T01180021  RH  052%=      5-min Rain = 0
KBO1 140504Z 23009KT 12/02 A3004 RMK A01 T01170022  RH  052%=      5-min Rain = 0
KBO1 140505Z 23010KT 12/02 A3004 RMK A01 T01150022  RH  053%=      5-min Rain = 0
KBO1 140506Z 23010KT 11/02 A3004 RMK A01 T01140021  RH  053%=      5-min Rain = 0
KBO1 140507Z 23011KT 11/02 A3004 RMK A01 T01130021  RH  053%=      5-min Rain = 0
KBO1 140508Z 23011KT 11/02 A3004 RMK A01 T01130020  RH  053%=      5-min Rain = 0
KBO1 140509Z 23011KT 11/02 A3004 RMK A01 T01130020  RH  053%=      5-min Rain = 0
KBO1 140510Z 23011KT 11/02 A3004 RMK A01 T01130020  RH  053%=      5-min Rain = 0
KBO1 140511Z 23011KT 11/02 A3004 RMK A01 T01130020  RH  053%=      5-min Rain = 0
KBO1 140512Z 23011KT 11/02 A3004 RMK A01 T01120021  RH  053%=      5-min Rain = 0
KBO1 140513Z 23011KT 11/02 A3004 RMK A01 T01120021  RH  053%=      5-min Rain = 0
KBO1 140514Z 23010KT 11/02 A3004 RMK A01 T01110021  RH  054%=      5-min Rain = 0
KBO1 140515Z 23010KT 11/02 A3004 RMK A01 T01110021  RH  054%=      5-min Rain = 0
KBO1 140516Z 23010KT 11/02 A3004 RMK A01 T01100021  RH  054%=      5-min Rain = 0
KBO1 140517Z 23010KT 11/02 A3004 RMK A01 T01090021  RH  054%=      5-min Rain = 0
KBO1 140518Z 23010KT 11/02 A3004 RMK A01 T01090021  RH  055%=      5-min Rain = 0
KBO1 140519Z 23009KT 11/02 A3004 RMK A01 T01080021  RH  055%=      5-min Rain = 0
KBO1 140520Z 23010KT 11/02 A3004 RMK A01 T01070021  RH  055%=      5-min Rain = 0
KBO1 140521Z 23010KT 11/02 A3004 RMK A01 T01060021  RH  056%=      5-min Rain = 0
KBO1 140522Z 23010KT 11/02 A3004 RMK A01 T01050021  RH  056%=      5-min Rain = 0
KBO1 140523Z 23010KT 10/02 A3004 RMK A01 T01040021  RH  057%=      5-min Rain = 0
KBO1 140524Z 23010KT 10/02 A3004 RMK A01 T01030021  RH  057%=      5-min Rain = 0
KBO1 140525Z 23010KT 10/02 A3004 RMK A01 T01030021  RH  057%=      5-min Rain = 0
KBO1 140526Z 23010KT 10/02 A3004 RMK A01 T01030021  RH  057%=      5-min Rain = 0
KBO1 140527Z 23010KT 10/02 A3004 RMK A01 T01030022  RH  057%=      5-min Rain = 0
KBO1 140528Z 23010KT 10/02 A3003 RMK A01 T01020021  RH  057%=      5-min Rain = 0
KBO1 140529Z 23010KT 10/02 A3003 RMK A01 T01020021  RH  057%=      5-min Rain = 0
KBO1 140530Z 23011KT 10/02 A3003 RMK A01 T01020021  RH  057%=      5-min Rain = 0
KBO1 140531Z 23010KT 10/02 A3003 RMK A01 T01020021  RH  057%=      5-min Rain = 0
KBO1 140532Z 23010KT 10/02 A3003 RMK A01 T01020021  RH  057%=      5-min Rain = 0
KBO1 140533Z 23010KT 10/02 A3003 RMK A01 T01020021  RH  057%=      5-min Rain = 0
KBO1 140534Z 23011KT 10/02 A3003 RMK A01 T01020022  RH  057%=      5-min Rain = 0
KBO1 140535Z 23010KT 10/02 A3003 RMK A01 T01020022  RH  058%=      5-min Rain = 0
KBO1 140536Z 23010KT 10/02 A3003 RMK A01 T01020022  RH  058%=      5-min Rain = 0
KBO1 140537Z 23010KT 10/02 A3003 RMK A01 T01020022  RH  058%=      5-min Rain = 0
KBO1 140538Z 23010KT 10/02 A3003 RMK A01 T01010023  RH  058%=      5-min Rain = 0
KBO1 140539Z 23010KT 10/02 A3003 RMK A01 T01000024  RH  059%=      5-min Rain = 0
KBO1 140540Z 23010KT 10/02 A3003 RMK A01 T00990024  RH  059%=      5-min Rain = 0
KBO1 140541Z 23009KT 10/02 A3003 RMK A01 T00980024  RH  060%=      5-min Rain = 0
KBO1 140542Z 23009KT 10/02 A3003 RMK A01 T00970024  RH  060%=      5-min Rain = 0
KBO1 140543Z 23009KT 10/02 A3003 RMK A01 T00960024  RH  061%=      5-min Rain = 0
KBO1 140544Z 24009KT 10/02 A3003 RMK A01 T00950024  RH  061%=      5-min Rain = 0
KBO1 140545Z 24009KT 10/02 A3003 RMK A01 T00950024  RH  061%=      5-min Rain = 0
KBO1 140546Z 24009KT 10/02 A3003 RMK A01 T00950024  RH  061%=      5-min Rain = 0
KBO1 140547Z 24010KT 09/02 A3003 RMK A01 T00940024  RH  061%=      5-min Rain = 0
KBO1 140548Z 24010KT 09/02 A3003 RMK A01 T00940024  RH  062%=      5-min Rain = 0
KBO1 140549Z 24010KT 09/02 A3003 RMK A01 T00930024  RH  062%=      5-min Rain = 0
KBO1 140550Z 24010KT 09/02 A3003 RMK A01 T00920024  RH  062%=      5-min Rain = 0
KBO1 140551Z 24010KT 09/02 A3003 RMK A01 T00920024  RH  062%=      5-min Rain = 0
KBO1 140552Z 24010KT 09/02 A3003 RMK A01 T00940024  RH  062%=      5-min Rain = 0
KBO1 140553Z 24010KT 10/02 A3003 RMK A01 T00950023  RH  061%=      5-min Rain = 0
KBO1 140554Z 24010KT 10/02 A3003 RMK A01 T00970024  RH  060%=      5-min Rain = 0
KBO1 140555Z 24010KT 10/02 A3003 RMK A01 T00980024  RH  060%=      5-min Rain = 0
KBO1 140556Z 24010KT 10/02 A3003 RMK A01 T01000024  RH  059%=      5-min Rain = 0
KBO1 140557Z 24010KT 10/02 A3003 RMK A01 T01030024  RH  058%=      5-min Rain = 0
KBO1 140558Z 24010KT 11/02 A3003 RMK A01 T01050023  RH  057%=      5-min Rain = 0
KBO1 140559Z 24010KT 11/02 A3003 RMK A01 T01070023  RH  056%=      5-min Rain = 0
KBO1 140600Z 24010KT 11/02 A3003 RMK A01 T01080023  RH  056%=      5-min Rain = 0
KBO1 140601Z 24010KT 11/02 A3003 RMK A01 T01090023  RH  056%=      5-min Rain = 0
KBO1 140602Z 24010KT 11/02 A3003 RMK A01 T01090023  RH  055%=      5-min Rain = 0
KBO1 140603Z 24011KT 11/02 A3003 RMK A01 T01110022  RH  054%=      5-min Rain = 0
KBO1 140604Z 24011KT 11/02 A3003 RMK A01 T01120022  RH  054%=      5-min Rain = 0
KBO1 140605Z 24012KT 11/02 A3003 RMK A01 T01130022  RH  054%=      5-min Rain = 0
KBO1 140606Z 24011KT 11/02 A3003 RMK A01 T01140022  RH  053%=      5-min Rain = 0
KBO1 140607Z 24012KT 12/02 A3003 RMK A01 T01150022  RH  053%=      5-min Rain = 0
KBO1 140608Z 24012KT 12/02 A3003 RMK A01 T01170021  RH  052%=      5-min Rain = 0
KBO1 140609Z 24012KT 12/02 A3003 RMK A01 T01180021  RH  051%=      5-min Rain = 0
KBO1 140610Z 24012KT 12/02 A3003 RMK A01 T01190021  RH  051%=      5-min Rain = 0
KBO1 140611Z 24013KT 12/02 A3003 RMK A01 T01210022  RH  051%=      5-min Rain = 0
KBO1 140612Z 24013KT 12/02 A3003 RMK A01 T01200021  RH  051%=      5-min Rain = 0
KBO1 140613Z 24013KT 12/02 A3003 RMK A01 T01210021  RH  050%=      5-min Rain = 0
KBO1 140614Z 24013KT 12/02 A3003 RMK A01 T01210021  RH  050%=      5-min Rain = 0
KBO1 140615Z 24013KT 12/02 A3003 RMK A01 T01220020  RH  050%=      5-min Rain = 0
KBO1 140616Z 25013KT 12/02 A3003 RMK A01 T01220021  RH  050%=      5-min Rain = 0
KBO1 140617Z 25012KT 12/02 A3003 RMK A01 T01200020  RH  050%=      5-min Rain = 0
KBO1 140618Z 25013KT 12/02 A3003 RMK A01 T01190020  RH  051%=      5-min Rain = 0
KBO1 140619Z 24013KT 12/02 A3003 RMK A01 T01190020  RH  051%=      5-min Rain = 0
KBO1 140620Z 24013KT 12/02 A3003 RMK A01 T01190020  RH  051%=      5-min Rain = 0
KBO1 140621Z 24013KT 12/02 A3002 RMK A01 T01190019  RH  050%=      5-min Rain = 0
KBO1 140622Z 24012KT 12/02 A3002 RMK A01 T01190019  RH  050%=      5-min Rain = 0
KBO1 140623Z 24012KT 12/02 A3003 RMK A01 T01190020  RH  050%=      5-min Rain = 0
KBO1 140624Z 24012KT 12/02 A3002 RMK A01 T01180020  RH  051%=      5-min Rain = 0
KBO1 140625Z 24013KT 12/02 A3002 RMK A01 T01180020  RH  051%=      5-min Rain = 0
KBO1 140626Z 24013KT 12/02 A3002 RMK A01 T01190019  RH  050%=      5-min Rain = 0
KBO1 140627Z 24013KT 12/02 A3002 RMK A01 T01190019  RH  050%=      5-min Rain = 0
KBO1 140628Z 24013KT 12/02 A3002 RMK A01 T01190019  RH  050%=      5-min Rain = 0
KBO1 140629Z 24012KT 12/02 A3002 RMK A01 T01180019  RH  051%=      5-min Rain = 0
KBO1 140630Z 24012KT 12/02 A3003 RMK A01 T01180019  RH  051%=      5-min Rain = 0
KBO1 140631Z 24013KT 12/02 A3002 RMK A01 T01170019  RH  051%=      5-min Rain = 0
KBO1 140632Z 24012KT 12/02 A3002 RMK A01 T01160019  RH  051%=      5-min Rain = 0
KBO1 140633Z 24012KT 12/02 A3002 RMK A01 T01160019  RH  051%=      5-min Rain = 0
KBO1 140634Z 24012KT 12/02 A3003 RMK A01 T01160020  RH  052%=      5-min Rain = 0
KBO1 140635Z 24012KT 12/02 A3003 RMK A01 T01160020  RH  052%=      5-min Rain = 0
KBO1 140636Z 24012KT 12/02 A3003 RMK A01 T01150019  RH  052%=      5-min Rain = 0
KBO1 140637Z 24012KT 12/02 A3003 RMK A01 T01150020  RH  052%=      5-min Rain = 0
KBO1 140638Z 24012KT 12/02 A3003 RMK A01 T01150019  RH  052%=      5-min Rain = 0
KBO1 140639Z 24012KT 11/02 A3003 RMK A01 T01140020  RH  052%=      5-min Rain = 0
KBO1 140640Z 24012KT 11/02 A3003 RMK A01 T01140020  RH  052%=      5-min Rain = 0
KBO1 140641Z 24012KT 11/02 A3003 RMK A01 T01130020  RH  053%=      5-min Rain = 0
KBO1 140642Z 24012KT 11/02 A3003 RMK A01 T01120020  RH  053%=      5-min Rain = 0
KBO1 140643Z 24012KT 11/02 A3003 RMK A01 T01110020  RH  053%=      5-min Rain = 0
KBO1 140644Z 24012KT 11/02 A3003 RMK A01 T01090020  RH  054%=      5-min Rain = 0
KBO1 140645Z 24012KT 11/02 A3003 RMK A01 T01080020  RH  054%=      5-min Rain = 0
KBO1 140646Z 24012KT 11/02 A3003 RMK A01 T01070020  RH  055%=      5-min Rain = 0
KBO1 140647Z 24012KT 11/02 A3003 RMK A01 T01050020  RH  055%=      5-min Rain = 0
KBO1 140648Z 24012KT 10/02 A3003 RMK A01 T01040020  RH  056%=      5-min Rain = 0
KBO1 140649Z 24012KT 10/02 A3003 RMK A01 T01040021  RH  056%=      5-min Rain = 0
KBO1 140650Z 24012KT 10/02 A3003 RMK A01 T01030021  RH  057%=      5-min Rain = 0
KBO1 140651Z 24011KT 10/02 A3003 RMK A01 T01030021  RH  057%=      5-min Rain = 0
KBO1 140652Z 24011KT 10/02 A3003 RMK A01 T01020021  RH  057%=      5-min Rain = 0
KBO1 140653Z 24010KT 10/02 A3003 RMK A01 T01020021  RH  057%=      5-min Rain = 0
KBO1 140654Z 24011KT 10/02 A3003 RMK A01 T01020021  RH  057%=      5-min Rain = 0
KBO1 140655Z 24011KT 10/02 A3003 RMK A01 T01020021  RH  057%=      5-min Rain = 0
KBO1 140656Z 24010KT 10/02 A3003 RMK A01 T01010021  RH  058%=      5-min Rain = 0
KBO1 140657Z 24010KT 10/02 A3003 RMK A01 T01010021  RH  058%=      5-min Rain = 0
KBO1 140658Z 24010KT 10/02 A3003 RMK A01 T01000022  RH  058%=      5-min Rain = 0
KBO1 140659Z 24010KT 10/02 A3003 RMK A01 T00990022  RH  058%=      5-min Rain = 0
KBO1 140700Z 24010KT 10/02 A3003 RMK A01 T00980022  RH  059%=      5-min Rain = 0
KBO1 140701Z 24010KT 10/02 A3003 RMK A01 T00980022  RH  059%=      5-min Rain = 0
KBO1 140702Z 24010KT 10/02 A3003 RMK A01 T00970022  RH  059%=      5-min Rain = 0
KBO1 140703Z 24010KT 10/02 A3003 RMK A01 T00960022  RH  060%=      5-min Rain = 0
KBO1 140704Z 24010KT 10/02 A3003 RMK A01 T00960022  RH  060%=      5-min Rain = 0
KBO1 140705Z 24010KT 10/02 A3003 RMK A01 T00960022  RH  060%=      5-min Rain = 0
KBO1 140706Z 24010KT 10/02 A3003 RMK A01 T00960022  RH  060%=      5-min Rain = 0
KBO1 140707Z 24011KT 10/02 A3003 RMK A01 T00970021  RH  059%=      5-min Rain = 0
KBO1 140708Z 24011KT 10/02 A3003 RMK A01 T00990021  RH  058%=      5-min Rain = 0
KBO1 140709Z 25011KT 10/02 A3003 RMK A01 T01000021  RH  058%=      5-min Rain = 0
KBO1 140710Z 24011KT 10/02 A3003 RMK A01 T01010021  RH  057%=      5-min Rain = 0
KBO1 140711Z 24011KT 10/02 A3003 RMK A01 T01030021  RH  057%=      5-min Rain = 0
KBO1 140712Z 24011KT 10/02 A3003 RMK A01 T01040021  RH  056%=      5-min Rain = 0
KBO1 140713Z 24011KT 11/02 A3003 RMK A01 T01050020  RH  056%=      5-min Rain = 0
KBO1 140714Z 24011KT 11/02 A3003 RMK A01 T01070021  RH  055%=      5-min Rain = 0
KBO1 140715Z 24011KT 11/02 A3003 RMK A01 T01080020  RH  055%=      5-min Rain = 0
KBO1 140716Z 24011KT 11/02 A3003 RMK A01 T01080020  RH  055%=      5-min Rain = 0
KBO1 140717Z 24012KT 11/02 A3003 RMK A01 T01090020  RH  054%=      5-min Rain = 0
KBO1 140718Z 24012KT 11/02 A3003 RMK A01 T01090020  RH  054%=      5-min Rain = 0
KBO1 140719Z 24012KT 11/02 A3003 RMK A01 T01100020  RH  054%=      5-min Rain = 0
KBO1 140720Z 24012KT 11/02 A3003 RMK A01 T01110020  RH  054%=      5-min Rain = 0
KBO1 140721Z 24012KT 11/02 A3003 RMK A01 T01110020  RH  053%=      5-min Rain = 0
KBO1 140722Z 24011KT 11/02 A3003 RMK A01 T01110020  RH  053%=      5-min Rain = 0
KBO1 140723Z 24011KT 11/02 A3003 RMK A01 T01110020  RH  053%=      5-min Rain = 0
KBO1 140724Z 24011KT 11/02 A3003 RMK A01 T01110020  RH  054%=      5-min Rain = 0
KBO1 140725Z 24011KT 11/02 A3003 RMK A01 T01110020  RH  054%=      5-min Rain = 0
KBO1 140726Z 24011KT 11/02 A3003 RMK A01 T01100019  RH  054%=      5-min Rain = 0
KBO1 140727Z 24011KT 11/02 A3003 RMK A01 T01100019  RH  054%=      5-min Rain = 0
KBO1 140728Z 24011KT 11/02 A3003 RMK A01 T01100020  RH  054%=      5-min Rain = 0
KBO1 140729Z 24010KT 11/02 A3003 RMK A01 T01100020  RH  054%=      5-min Rain = 0
KBO1 140730Z 23010KT 11/02 A3003 RMK A01 T01090020  RH  054%=      5-min Rain = 0
KBO1 140731Z 23011KT 11/02 A3003 RMK A01 T01090020  RH  054%=      5-min Rain = 0
KBO1 140732Z 23011KT 11/02 A3003 RMK A01 T01090019  RH  054%=      5-min Rain = 0
KBO1 140733Z 23011KT 11/02 A3003 RMK A01 T01090020  RH  054%=      5-min Rain = 0
KBO1 140734Z 23010KT 11/02 A3003 RMK A01 T01080019  RH  054%=      5-min Rain = 0
KBO1 140735Z 23010KT 11/02 A3003 RMK A01 T01080019  RH  054%=      5-min Rain = 0
KBO1 140736Z 23010KT 11/02 A3003 RMK A01 T01070020  RH  055%=      5-min Rain = 0
KBO1 140737Z 23010KT 11/02 A3003 RMK A01 T01060020  RH  055%=      5-min Rain = 0
KBO1 140738Z 23010KT 11/02 A3003 RMK A01 T01050020  RH  055%=      5-min Rain = 0
KBO1 140739Z 23010KT 10/02 A3003 RMK A01 T01040020  RH  056%=      5-min Rain = 0
KBO1 140740Z 23010KT 10/02 A3003 RMK A01 T01030019  RH  056%=      5-min Rain = 0
KBO1 140741Z 24010KT 10/02 A3003 RMK A01 T01020020  RH  056%=      5-min Rain = 0
KBO1 140742Z 24010KT 10/02 A3003 RMK A01 T01010020  RH  057%=      5-min Rain = 0
KBO1 140743Z 24010KT 10/02 A3003 RMK A01 T01010019  RH  057%=      5-min Rain = 0
KBO1 140744Z 23011KT 10/02 A3003 RMK A01 T01000019  RH  057%=      5-min Rain = 0
KBO1 140745Z 23011KT 10/02 A3003 RMK A01 T01000019  RH  057%=      5-min Rain = 0
KBO1 140746Z 23011KT 10/02 A3003 RMK A01 T01000019  RH  057%=      5-min Rain = 0
KBO1 140747Z 23011KT 10/02 A3003 RMK A01 T01000018  RH  057%=      5-min Rain = 0
KBO1 140748Z 23011KT 10/02 A3003 RMK A01 T01010018  RH  056%=      5-min Rain = 0
KBO1 140749Z 24011KT 10/02 A3003 RMK A01 T01010018  RH  056%=      5-min Rain = 0
KBO1 140750Z 24011KT 10/02 A3003 RMK A01 T01010018  RH  056%=      5-min Rain = 0
KBO1 140751Z 24011KT 10/02 A3003 RMK A01 T01020018  RH  056%=      5-min Rain = 0
KBO1 140752Z 24011KT 10/02 A3003 RMK A01 T01010018  RH  056%=      5-min Rain = 0
KBO1 140753Z 24011KT 10/02 A3003 RMK A01 T01010018  RH  056%=      5-min Rain = 0
KBO1 140754Z 24011KT 10/02 A3003 RMK A01 T01010017  RH  056%=      5-min Rain = 0
KBO1 140755Z 24011KT 10/02 A3003 RMK A01 T01020018  RH  056%=      5-min Rain = 0
KBO1 140756Z 24011KT 10/02 A3003 RMK A01 T01010017  RH  056%=      5-min Rain = 0
KBO1 140757Z 24011KT 10/02 A3003 RMK A01 T01000018  RH  056%=      5-min Rain = 0
KBO1 140758Z 24011KT 10/02 A3003 RMK A01 T01000018  RH  057%=      5-min Rain = 0
KBO1 140759Z 24011KT 10/02 A3003 RMK A01 T00990017  RH  057%=      5-min Rain = 0
KBO1 140800Z 24011KT 10/02 A3003 RMK A01 T00980017  RH  057%=      5-min Rain = 0
KBO1 140801Z 24011KT 10/02 A3003 RMK A01 T00970017  RH  058%=      5-min Rain = 0
KBO1 140802Z 24011KT 10/02 A3003 RMK A01 T00970017  RH  057%=      5-min Rain = 0
KBO1 140803Z 24010KT 10/02 A3003 RMK A01 T00970017  RH  057%=      5-min Rain = 0
KBO1 140804Z 24010KT 10/02 A3003 RMK A01 T00970017  RH  057%=      5-min Rain = 0
KBO1 140805Z 24010KT 10/02 A3003 RMK A01 T00970017  RH  058%=      5-min Rain = 0
KBO1 140806Z 24010KT 10/02 A3003 RMK A01 T00960017  RH  058%=      5-min Rain = 0
KBO1 140807Z 24010KT 10/02 A3003 RMK A01 T00950017  RH  058%=      5-min Rain = 0
KBO1 140808Z 24010KT 09/02 A3003 RMK A01 T00940016  RH  058%=      5-min Rain = 0
KBO1 140809Z 24010KT 09/02 A3003 RMK A01 T00940016  RH  058%=      5-min Rain = 0
KBO1 140810Z 25009KT 09/02 A3003 RMK A01 T00940017  RH  058%=      5-min Rain = 0
KBO1 140811Z 25009KT 09/02 A3003 RMK A01 T00940017  RH  059%=      5-min Rain = 0
KBO1 140812Z 24010KT 09/02 A3003 RMK A01 T00920017  RH  059%=      5-min Rain = 0
KBO1 140813Z 24010KT 09/02 A3003 RMK A01 T00920017  RH  059%=      5-min Rain = 0
KBO1 140814Z 24011KT 09/02 A3003 RMK A01 T00920017  RH  059%=      5-min Rain = 0
KBO1 140815Z 24011KT 09/02 A3003 RMK A01 T00930016  RH  059%=      5-min Rain = 0
KBO1 140816Z 24011KT 10/02 A3003 RMK A01 T00950016  RH  058%=      5-min Rain = 0
KBO1 140817Z 24011KT 10/02 A3003 RMK A01 T00960016  RH  057%=      5-min Rain = 0
KBO1 140818Z 24011KT 10/02 A3003 RMK A01 T00970016  RH  057%=      5-min Rain = 0
KBO1 140819Z 24011KT 10/02 A3002 RMK A01 T00970016  RH  057%=      5-min Rain = 0
KBO1 140820Z 24011KT 10/02 A3002 RMK A01 T00980015  RH  057%=      5-min Rain = 0
KBO1 140821Z 23011KT 10/02 A3002 RMK A01 T00980015  RH  057%=      5-min Rain = 0
KBO1 140822Z 23010KT 10/02 A3002 RMK A01 T00970015  RH  057%=      5-min Rain = 0
KBO1 140823Z 23011KT 10/02 A3002 RMK A01 T00960016  RH  057%=      5-min Rain = 0
KBO1 140824Z 23011KT 10/02 A3002 RMK A01 T00950015  RH  058%=      5-min Rain = 0
KBO1 140825Z 23011KT 09/02 A3002 RMK A01 T00940015  RH  058%=      5-min Rain = 0
KBO1 140826Z 23011KT 09/02 A3002 RMK A01 T00930015  RH  058%=      5-min Rain = 0
KBO1 140827Z 23011KT 09/02 A3002 RMK A01 T00920016  RH  059%=      5-min Rain = 0
KBO1 140828Z 24011KT 09/02 A3002 RMK A01 T00920016  RH  059%=      5-min Rain = 0
KBO1 140829Z 24011KT 09/02 A3002 RMK A01 T00910015  RH  059%=      5-min Rain = 0
KBO1 140830Z 24012KT 09/02 A3002 RMK A01 T00910015  RH  059%=      5-min Rain = 0
KBO1 140831Z 24011KT 09/02 A3002 RMK A01 T00920015  RH  058%=      5-min Rain = 0
KBO1 140832Z 24011KT 09/02 A3002 RMK A01 T00930015  RH  058%=      5-min Rain = 0
KBO1 140833Z 25012KT 09/01 A3002 RMK A01 T00930014  RH  058%=      5-min Rain = 0
KBO1 140834Z 25012KT 09/01 A3002 RMK A01 T00940014  RH  058%=      5-min Rain = 0
KBO1 140835Z 24012KT 10/01 A3002 RMK A01 T00950014  RH  057%=      5-min Rain = 0
KBO1 140836Z 24012KT 10/01 A3002 RMK A01 T00960013  RH  056%=      5-min Rain = 0
KBO1 140837Z 24013KT 10/01 A3002 RMK A01 T00980013  RH  056%=      5-min Rain = 0
KBO1 140838Z 24013KT 10/01 A3002 RMK A01 T01000013  RH  055%=      5-min Rain = 0
KBO1 140839Z 24013KT 10/01 A3002 RMK A01 T01000013  RH  055%=      5-min Rain = 0
KBO1 140840Z 24012KT 10/01 A3002 RMK A01 T01000013  RH  055%=      5-min Rain = 0
KBO1 140841Z 24012KT 10/01 A3002 RMK A01 T01000013  RH  055%=      5-min Rain = 0
KBO1 140842Z 24012KT 10/01 A3002 RMK A01 T01000014  RH  055%=      5-min Rain = 0
KBO1 140843Z 24012KT 10/01 A3002 RMK A01 T00990013  RH  055%=      5-min Rain = 0
KBO1 140844Z 24011KT 10/01 A3002 RMK A01 T00980013  RH  055%=      5-min Rain = 0
KBO1 140845Z 24012KT 10/01 A3002 RMK A01 T00980014  RH  056%=      5-min Rain = 0
KBO1 140846Z 24012KT 10/01 A3002 RMK A01 T00970013  RH  056%=      5-min Rain = 0
KBO1 140847Z 24012KT 10/01 A3002 RMK A01 T00970013  RH  056%=      5-min Rain = 0
KBO1 140848Z 24011KT 10/01 A3002 RMK A01 T00970013  RH  056%=      5-min Rain = 0
KBO1 140849Z 24012KT 10/01 A3002 RMK A01 T00970013  RH  056%=      5-min Rain = 0
KBO1 140850Z 24012KT 10/01 A3002 RMK A01 T00980012  RH  055%=      5-min Rain = 0
KBO1 140851Z 24012KT 10/01 A3002 RMK A01 T00990012  RH  055%=      5-min Rain = 0
KBO1 140852Z 24011KT 10/01 A3002 RMK A01 T01000012  RH  054%=      5-min Rain = 0
KBO1 140853Z 24011KT 10/01 A3002 RMK A01 T01010012  RH  054%=      5-min Rain = 0
KBO1 140854Z 24012KT 10/01 A3002 RMK A01 T01010012  RH  054%=      5-min Rain = 0
KBO1 140855Z 24011KT 10/01 A3002 RMK A01 T01010012  RH  054%=      5-min Rain = 0
KBO1 140856Z 24011KT 10/01 A3002 RMK A01 T01000012  RH  054%=      5-min Rain = 0
KBO1 140857Z 24011KT 10/01 A3002 RMK A01 T01000012  RH  054%=      5-min Rain = 0
KBO1 140858Z 25011KT 10/01 A3002 RMK A01 T01000012  RH  054%=      5-min Rain = 0
KBO1 140859Z 24012KT 10/01 A3002 RMK A01 T01000012  RH  054%=      5-min Rain = 0
KBO1 140900Z 24012KT 10/01 A3002 RMK A01 T01000012  RH  054%=      5-min Rain = 0
KBO1 140901Z 24013KT 10/01 A3002 RMK A01 T01010012  RH  054%=      5-min Rain = 0
KBO1 140902Z 25013KT 10/01 A3002 RMK A01 T01010011  RH  054%=      5-min Rain = 0
KBO1 140903Z 25012KT 10/01 A3002 RMK A01 T01030012  RH  053%=      5-min Rain = 0
KBO1 140904Z 25013KT 10/01 A3002 RMK A01 T01040011  RH  053%=      5-min Rain = 0
KBO1 140905Z 25014KT 11/01 A3002 RMK A01 T01050011  RH  052%=      5-min Rain = 0
KBO1 140906Z 25014KT 11/01 A3002 RMK A01 T01070010  RH  051%=      5-min Rain = 0
KBO1 140907Z 25014KT 11/01 A3002 RMK A01 T01080010  RH  051%=      5-min Rain = 0
KBO1 140908Z 25013KT 11/01 A3002 RMK A01 T01100010  RH  050%=      5-min Rain = 0
KBO1 140909Z 25013KT 11/01 A3002 RMK A01 T01100010  RH  050%=      5-min Rain = 0
KBO1 140910Z 25013KT 11/01 A3002 RMK A01 T01100010  RH  050%=      5-min Rain = 0
KBO1 140911Z 24013KT 11/01 A3002 RMK A01 T01080011  RH  051%=      5-min Rain = 0
KBO1 140912Z 25013KT 11/01 A3002 RMK A01 T01070010  RH  051%=      5-min Rain = 0
KBO1 140913Z 25014KT 11/01 A3002 RMK A01 T01060010  RH  052%=      5-min Rain = 0
KBO1 140914Z 25013KT 11/01 A3002 RMK A01 T01060010  RH  052%=      5-min Rain = 0
KBO1 140915Z 25013KT 11/01 A3002 RMK A01 T01060010  RH  052%=      5-min Rain = 0
KBO1 140916Z 25013KT 11/01 A3002 RMK A01 T01050010  RH  052%=      5-min Rain = 0
KBO1 140917Z 25013KT 11/01 A3002 RMK A01 T01050011  RH  052%=      5-min Rain = 0
KBO1 140918Z 25013KT 11/01 A3002 RMK A01 T01050011  RH  052%=      5-min Rain = 0
KBO1 140919Z 25012KT 10/01 A3002 RMK A01 T01040011  RH  052%=      5-min Rain = 0
KBO1 140920Z 25012KT 10/01 A3002 RMK A01 T01040011  RH  053%=      5-min Rain = 0
KBO1 140921Z 25012KT 10/01 A3002 RMK A01 T01030011  RH  053%=      5-min Rain = 0
KBO1 140922Z 25011KT 10/01 A3002 RMK A01 T01020011  RH  053%=      5-min Rain = 0
KBO1 140923Z 25012KT 10/01 A3002 RMK A01 T01010012  RH  054%=      5-min Rain = 0
KBO1 140924Z 25011KT 10/01 A3002 RMK A01 T00990012  RH  054%=      5-min Rain = 0
KBO1 140925Z 25011KT 10/01 A3002 RMK A01 T00990012  RH  055%=      5-min Rain = 0
KBO1 140926Z 25012KT 10/01 A3002 RMK A01 T00990012  RH  055%=      5-min Rain = 0
KBO1 140927Z 25012KT 10/01 A3002 RMK A01 T00990012  RH  055%=      5-min Rain = 0
KBO1 140928Z 25012KT 10/01 A3002 RMK A01 T00980012  RH  055%=      5-min Rain = 0
KBO1 140929Z 25012KT 10/01 A3002 RMK A01 T00980012  RH  055%=      5-min Rain = 0
KBO1 140930Z 25011KT 10/01 A3002 RMK A01 T00990012  RH  055%=      5-min Rain = 0
KBO1 140931Z 25011KT 10/01 A3002 RMK A01 T00990012  RH  055%=      5-min Rain = 0
KBO1 140932Z 24011KT 10/01 A3002 RMK A01 T01000012  RH  054%=      5-min Rain = 0
KBO1 140933Z 24011KT 10/01 A3002 RMK A01 T01010013  RH  054%=      5-min Rain = 0
KBO1 140934Z 24011KT 10/01 A3002 RMK A01 T01010013  RH  054%=      5-min Rain = 0
KBO1 140935Z 24011KT 10/01 A3002 RMK A01 T01010013  RH  054%=      5-min Rain = 0
KBO1 140936Z 24011KT 10/01 A3002 RMK A01 T01010013  RH  054%=      5-min Rain = 0
KBO1 140937Z 24011KT 10/01 A3002 RMK A01 T01000013  RH  055%=      5-min Rain = 0
KBO1 140938Z 24011KT 10/01 A3002 RMK A01 T00990013  RH  055%=      5-min Rain = 0
KBO1 140939Z 24011KT 10/01 A3002 RMK A01 T00980013  RH  055%=      5-min Rain = 0
KBO1 140940Z 24011KT 10/01 A3002 RMK A01 T00970013  RH  056%=      5-min Rain = 0
KBO1 140941Z 24011KT 10/01 A3002 RMK A01 T00960013  RH  056%=      5-min Rain = 0
KBO1 140942Z 24011KT 10/01 A3002 RMK A01 T00960013  RH  056%=      5-min Rain = 0
KBO1 140943Z 23011KT 10/01 A3002 RMK A01 T00950013  RH  057%=      5-min Rain = 0
KBO1 140944Z 23011KT 09/01 A3002 RMK A01 T00940013  RH  057%=      5-min Rain = 0
KBO1 140945Z 24011KT 09/01 A3002 RMK A01 T00930013  RH  058%=      5-min Rain = 0
KBO1 140946Z 24011KT 09/01 A3002 RMK A01 T00920014  RH  058%=      5-min Rain = 0
KBO1 140947Z 24011KT 09/01 A3002 RMK A01 T00910014  RH  058%=      5-min Rain = 0
KBO1 140948Z 24011KT 09/01 A3001 RMK A01 T00920014  RH  058%=      5-min Rain = 0
KBO1 140949Z 24011KT 09/01 A3001 RMK A01 T00920014  RH  058%=      5-min Rain = 0
KBO1 140950Z 24011KT 09/01 A3001 RMK A01 T00930014  RH  058%=      5-min Rain = 0
KBO1 140951Z 24012KT 09/01 A3001 RMK A01 T00940014  RH  057%=      5-min Rain = 0
KBO1 140952Z 24011KT 10/01 A3001 RMK A01 T00950013  RH  057%=      5-min Rain = 0
KBO1 140953Z 24012KT 10/01 A3001 RMK A01 T00960014  RH  056%=      5-min Rain = 0
KBO1 140954Z 24011KT 10/01 A3001 RMK A01 T00980013  RH  055%=      5-min Rain = 0
KBO1 140955Z 24011KT 10/01 A3001 RMK A01 T01000014  RH  055%=      5-min Rain = 0
KBO1 140956Z 24011KT 10/01 A3001 RMK A01 T00990013  RH  055%=      5-min Rain = 0
KBO1 140957Z 24011KT 10/01 A3001 RMK A01 T01000013  RH  055%=      5-min Rain = 0
KBO1 140958Z 24011KT 10/01 A3001 RMK A01 T01000013  RH  055%=      5-min Rain = 0
KBO1 140959Z 24010KT 10/01 A3001 RMK A01 T01010013  RH  054%=      5-min Rain = 0
KBO1 141000Z 24010KT 10/01 A3001 RMK A01 T01010013  RH  054%=      5-min Rain = 0
KBO1 141001Z 24010KT 10/01 A3001 RMK A01 T01010013  RH  054%=      5-min Rain = 0
KBO1 141002Z 24010KT 10/01 A3001 RMK A01 T01010013  RH  054%=      5-min Rain = 0
KBO1 141003Z 24010KT 10/01 A3001 RMK A01 T01010013  RH  054%=      5-min Rain = 0
KBO1 141004Z 24011KT 10/01 A3001 RMK A01 T01020012  RH  054%=      5-min Rain = 0
KBO1 141005Z 25010KT 10/01 A3001 RMK A01 T01020012  RH  054%=      5-min Rain = 0
KBO1 141006Z 25011KT 10/01 A3001 RMK A01 T01020012  RH  053%=      5-min Rain = 0
KBO1 141007Z 25010KT 10/01 A3001 RMK A01 T01030011  RH  053%=      5-min Rain = 0
KBO1 141008Z 25011KT 10/01 A3001 RMK A01 T01030011  RH  053%=      5-min Rain = 0
KBO1 141009Z 25011KT 10/01 A3001 RMK A01 T01040011  RH  053%=      5-min Rain = 0
KBO1 141010Z 25011KT 10/01 A3001 RMK A01 T01040011  RH  052%=      5-min Rain = 0
KBO1 141011Z 24010KT 10/01 A3001 RMK A01 T01040011  RH  052%=      5-min Rain = 0
KBO1 141012Z 24010KT 10/01 A3001 RMK A01 T01040011  RH  053%=      5-min Rain = 0
KBO1 141013Z 24010KT 10/01 A3001 RMK A01 T01040011  RH  053%=      5-min Rain = 0
KBO1 141014Z 24010KT 10/01 A3001 RMK A01 T01040011  RH  053%=      5-min Rain = 0
KBO1 141015Z 24010KT 10/01 A3001 RMK A01 T01030010  RH  053%=      5-min Rain = 0
KBO1 141016Z 25010KT 10/01 A3001 RMK A01 T01030010  RH  053%=      5-min Rain = 0
KBO1 141017Z 25010KT 10/01 A3001 RMK A01 T01030010  RH  053%=      5-min Rain = 0
KBO1 141018Z 25010KT 10/01 A3001 RMK A01 T01030010  RH  053%=      5-min Rain = 0
KBO1 141019Z 25010KT 10/01 A3001 RMK A01 T01020010  RH  053%=      5-min Rain = 0
KBO1 141020Z 25010KT 10/01 A3001 RMK A01 T01020010  RH  053%=      5-min Rain = 0
KBO1 141021Z 25010KT 10/01 A3001 RMK A01 T01010011  RH  053%=      5-min Rain = 0
KBO1 141022Z 25010KT 10/01 A3001 RMK A01 T01010011  RH  053%=      5-min Rain = 0
KBO1 141023Z 25010KT 10/01 A3001 RMK A01 T01010011  RH  053%=      5-min Rain = 0
KBO1 141024Z 25010KT 10/01 A3001 RMK A01 T01010011  RH  054%=      5-min Rain = 0
KBO1 141025Z 25010KT 10/01 A3001 RMK A01 T01000011  RH  054%=      5-min Rain = 0
KBO1 141026Z 25009KT 10/01 A3001 RMK A01 T01000011  RH  054%=      5-min Rain = 0
KBO1 141027Z 25010KT 10/01 A3001 RMK A01 T00990011  RH  054%=      5-min Rain = 0
KBO1 141028Z 25010KT 10/01 A3001 RMK A01 T00990010  RH  054%=      5-min Rain = 0
KBO1 141029Z 25010KT 10/01 A3001 RMK A01 T00990010  RH  054%=      5-min Rain = 0
KBO1 141030Z 25010KT 10/01 A3001 RMK A01 T01000010  RH  054%=      5-min Rain = 0
KBO1 141031Z 25010KT 10/01 A3001 RMK A01 T01000009  RH  053%=      5-min Rain = 0
KBO1 141032Z 24010KT 10/01 A3001 RMK A01 T01000009  RH  053%=      5-min Rain = 0
KBO1 141033Z 25010KT 10/01 A3001 RMK A01 T01010009  RH  053%=      5-min Rain = 0
KBO1 141034Z 25010KT 10/01 A3001 RMK A01 T01010009  RH  053%=      5-min Rain = 0
KBO1 141035Z 24010KT 10/01 A3001 RMK A01 T01000009  RH  053%=      5-min Rain = 0
KBO1 141036Z 25010KT 10/01 A3001 RMK A01 T01010009  RH  053%=      5-min Rain = 0
KBO1 141037Z 25010KT 10/01 A3001 RMK A01 T01000009  RH  053%=      5-min Rain = 0
KBO1 141038Z 24010KT 10/01 A3001 RMK A01 T01000009  RH  053%=      5-min Rain = 0
KBO1 141039Z 25010KT 10/01 A3001 RMK A01 T01000010  RH  053%=      5-min Rain = 0
KBO1 141040Z 25010KT 10/01 A3001 RMK A01 T00990009  RH  054%=      5-min Rain = 0
KBO1 141041Z 25010KT 10/01 A3001 RMK A01 T00990009  RH  054%=      5-min Rain = 0
KBO1 141042Z 25010KT 10/01 A3001 RMK A01 T00980009  RH  054%=      5-min Rain = 0
KBO1 141043Z 25010KT 10/01 A3002 RMK A01 T00990009  RH  054%=      5-min Rain = 0
KBO1 141044Z 25010KT 10/01 A3002 RMK A01 T00990008  RH  053%=      5-min Rain = 0
KBO1 141045Z 25010KT 10/01 A3002 RMK A01 T00990008  RH  053%=      5-min Rain = 0
KBO1 141046Z 25010KT 10/01 A3002 RMK A01 T01000008  RH  053%=      5-min Rain = 0
KBO1 141047Z 25010KT 10/01 A3002 RMK A01 T01010008  RH  052%=      5-min Rain = 0
KBO1 141048Z 25010KT 10/01 A3002 RMK A01 T01020008  RH  052%=      5-min Rain = 0
KBO1 141049Z 25009KT 10/01 A3002 RMK A01 T01020007  RH  052%=      5-min Rain = 0
KBO1 141050Z 25010KT 10/01 A3002 RMK A01 T01020007  RH  052%=      5-min Rain = 0
KBO1 141051Z 25010KT 10/01 A3002 RMK A01 T01030007  RH  051%=      5-min Rain = 0
KBO1 141052Z 25010KT 10/01 A3002 RMK A01 T01040007  RH  051%=      5-min Rain = 0
KBO1 141053Z 25010KT 10/01 A3002 RMK A01 T01040007  RH  051%=      5-min Rain = 0
KBO1 141054Z 25010KT 10/01 A3002 RMK A01 T01040007  RH  051%=      5-min Rain = 0
KBO1 141055Z 25009KT 10/01 A3002 RMK A01 T01040007  RH  051%=      5-min Rain = 0
KBO1 141056Z 24009KT 10/01 A3002 RMK A01 T01040008  RH  051%=      5-min Rain = 0
KBO1 141057Z 25009KT 10/01 A3002 RMK A01 T01040008  RH  051%=      5-min Rain = 0
KBO1 141058Z 25009KT 10/01 A3002 RMK A01 T01030008  RH  052%=      5-min Rain = 0
KBO1 141059Z 25009KT 10/01 A3002 RMK A01 T01020008  RH  052%=      5-min Rain = 0
KBO1 141100Z 25009KT 10/01 A3002 RMK A01 T01020008  RH  052%=      5-min Rain = 0
KBO1 141101Z 25008KT 10/01 A3002 RMK A01 T01010008  RH  052%=      5-min Rain = 0
KBO1 141102Z 25008KT 10/01 A3002 RMK A01 T01010008  RH  052%=      5-min Rain = 0
KBO1 141103Z 26008KT 10/01 A3002 RMK A01 T01010008  RH  053%=      5-min Rain = 0
KBO1 141104Z 26007KT 10/01 A3002 RMK A01 T01000009  RH  053%=      5-min Rain = 0
KBO1 141105Z 30006KT 10/01 A3002 RMK A01 T01000008  RH  053%=      5-min Rain = 0
KBO1 141106Z 28007KT 10/01 A3003 RMK A01 T00980009  RH  054%=      5-min Rain = 0
KBO1 141107Z 29007KT 10/01 A3003 RMK A01 T00950009  RH  055%=      5-min Rain = 0
KBO1 141108Z 26009KT 09/01 A3003 RMK A01 T00920010  RH  056%=      5-min Rain = 0
KBO1 141109Z 27008KT 09/01 A3003 RMK A01 T00880009  RH  058%=      5-min Rain = 0
KBO1 141110Z 27008KT 09/01 A3003 RMK A01 T00870010  RH  058%=      5-min Rain = 0
KBO1 141111Z 27008KT 09/01 A3003 RMK A01 T00860010  RH  059%=      5-min Rain = 0
KBO1 141112Z 27009KT 09/01 A3002 RMK A01 T00860010  RH  059%=      5-min Rain = 0
KBO1 141113Z 27008KT 09/01 A3003 RMK A01 T00850011  RH  060%=      5-min Rain = 0
KBO1 141114Z 27008KT 08/01 A3003 RMK A01 T00830011  RH  061%=      5-min Rain = 0
KBO1 141115Z 27009KT 08/01 A3003 RMK A01 T00810012  RH  062%=      5-min Rain = 0
KBO1 141116Z 26009KT 08/01 A3003 RMK A01 T00800012  RH  062%=      5-min Rain = 0
KBO1 141117Z 26009KT 08/01 A3003 RMK A01 T00800012  RH  062%=      5-min Rain = 0
KBO1 141118Z 26009KT 08/01 A3003 RMK A01 T00790012  RH  062%=      5-min Rain = 0
KBO1 141119Z 26009KT 08/01 A3003 RMK A01 T00800012  RH  062%=      5-min Rain = 0
KBO1 141120Z 26009KT 08/01 A3003 RMK A01 T00810011  RH  061%=      5-min Rain = 0
KBO1 141121Z 25009KT 08/01 A3003 RMK A01 T00830011  RH  061%=      5-min Rain = 0
KBO1 141122Z 25009KT 08/01 A3003 RMK A01 T00840012  RH  060%=      5-min Rain = 0
KBO1 141123Z 25009KT 08/01 A3003 RMK A01 T00840012  RH  060%=      5-min Rain = 0
KBO1 141124Z 25009KT 09/01 A3003 RMK A01 T00850012  RH  060%=      5-min Rain = 0
KBO1 141125Z 25009KT 08/01 A3003 RMK A01 T00840011  RH  060%=      5-min Rain = 0
KBO1 141126Z 25009KT 09/01 A3003 RMK A01 T00850011  RH  060%=      5-min Rain = 0
KBO1 141127Z 25009KT 09/01 A3003 RMK A01 T00850011  RH  060%=      5-min Rain = 0
KBO1 141128Z 25009KT 09/01 A3003 RMK A01 T00850011  RH  059%=      5-min Rain = 0
KBO1 141129Z 26009KT 09/01 A3003 RMK A01 T00860011  RH  059%=      5-min Rain = 0
KBO1 141130Z 26009KT 09/01 A3003 RMK A01 T00880011  RH  059%=      5-min Rain = 0
KBO1 141131Z 26008KT 09/01 A3003 RMK A01 T00880011  RH  058%=      5-min Rain = 0
KBO1 141132Z 26007KT 09/01 A3003 RMK A01 T00890011  RH  058%=      5-min Rain = 0
KBO1 141133Z 28004KT 09/01 A3003 RMK A01 T00900011  RH  058%=      5-min Rain = 0
KBO1 141134Z 27005KT 09/01 A3003 RMK A01 T00880011  RH  059%=      5-min Rain = 0
KBO1 141135Z 26008KT 09/01 A3003 RMK A01 T00850010  RH  059%=      5-min Rain = 0
KBO1 141136Z 26008KT 09/01 A3003 RMK A01 T00860010  RH  059%=      5-min Rain = 0
KBO1 141137Z 25008KT 09/01 A3003 RMK A01 T00880010  RH  058%=      5-min Rain = 0
KBO1 141138Z 24007KT 09/01 A3003 RMK A01 T00890011  RH  058%=      5-min Rain = 0
KBO1 141139Z 25006KT 09/01 A3003 RMK A01 T00890011  RH  058%=      5-min Rain = 0
KBO1 141140Z 25006KT 09/01 A3003 RMK A01 T00870011  RH  059%=      5-min Rain = 0
KBO1 141141Z 25006KT 09/01 A3003 RMK A01 T00860012  RH  059%=      5-min Rain = 0
KBO1 141142Z 24005KT 08/01 A3003 RMK A01 T00840012  RH  061%=      5-min Rain = 0
KBO1 141143Z 24005KT 08/01 A3003 RMK A01 T00810012  RH  061%=      5-min Rain = 0
KBO1 141144Z 25005KT 08/01 A3003 RMK A01 T00800011  RH  062%=      5-min Rain = 0
KBO1 141145Z 25006KT 08/01 A3003 RMK A01 T00800011  RH  062%=      5-min Rain = 0
KBO1 141146Z 25006KT 08/01 A3003 RMK A01 T00810011  RH  061%=      5-min Rain = 0
KBO1 141147Z 25005KT 08/01 A3004 RMK A01 T00820011  RH  061%=      5-min Rain = 0
KBO1 141148Z 24006KT 08/01 A3004 RMK A01 T00820011  RH  061%=      5-min Rain = 0
KBO1 141149Z 25006KT 08/01 A3004 RMK A01 T00820011  RH  061%=      5-min Rain = 0
KBO1 141150Z 25006KT 08/01 A3004 RMK A01 T00820011  RH  061%=      5-min Rain = 0
KBO1 141151Z 25007KT 08/01 A3004 RMK A01 T00810011  RH  061%=      5-min Rain = 0
KBO1 141152Z 25007KT 08/01 A3004 RMK A01 T00800011  RH  061%=      5-min Rain = 0
KBO1 141153Z 24007KT 08/01 A3004 RMK A01 T00800011  RH  062%=      5-min Rain = 0
KBO1 141154Z 24007KT 08/01 A3004 RMK A01 T00790011  RH  062%=      5-min Rain = 0
KBO1 141155Z 25007KT 08/01 A3004 RMK A01 T00790011  RH  062%=      5-min Rain = 0
KBO1 141156Z 25008KT 08/01 A3004 RMK A01 T00790011  RH  062%=      5-min Rain = 0
KBO1 141157Z 25008KT 08/01 A3004 RMK A01 T00780011  RH  063%=      5-min Rain = 0
KBO1 141158Z 24007KT 08/01 A3004 RMK A01 T00780011  RH  063%=      5-min Rain = 0
KBO1 141159Z 24007KT 08/01 A3004 RMK A01 T00770012  RH  063%=      5-min Rain = 0
KBO1 141200Z 24007KT 08/01 A3004 RMK A01 T00760012  RH  064%=      5-min Rain = 0
KBO1 141201Z 24008KT 08/01 A3004 RMK A01 T00750012  RH  064%=      5-min Rain = 0
KBO1 141202Z 24008KT 08/01 A3004 RMK A01 T00750012  RH  064%=      5-min Rain = 0
KBO1 141203Z 24007KT 08/01 A3004 RMK A01 T00760012  RH  064%=      5-min Rain = 0
KBO1 141204Z 24007KT 08/01 A3004 RMK A01 T00770013  RH  064%=      5-min Rain = 0
KBO1 141205Z 24007KT 08/01 A3004 RMK A01 T00770013  RH  064%=      5-min Rain = 0
KBO1 141206Z 24007KT 08/01 A3004 RMK A01 T00770013  RH  064%=      5-min Rain = 0
KBO1 141207Z 23008KT 08/01 A3004 RMK A01 T00770014  RH  064%=      5-min Rain = 0
KBO1 141208Z 24008KT 08/01 A3004 RMK A01 T00760014  RH  065%=      5-min Rain = 0
KBO1 141209Z 24009KT 08/01 A3004 RMK A01 T00750014  RH  065%=      5-min Rain = 0
KBO1 141210Z 24009KT 08/01 A3004 RMK A01 T00750014  RH  065%=      5-min Rain = 0
KBO1 141211Z 24009KT 07/01 A3004 RMK A01 T00740014  RH  065%=      5-min Rain = 0
KBO1 141212Z 24009KT 07/01 A3004 RMK A01 T00740013  RH  065%=      5-min Rain = 0
KBO1 141213Z 24008KT 07/01 A3004 RMK A01 T00740013  RH  065%=      5-min Rain = 0
KBO1 141214Z 24008KT 07/01 A3004 RMK A01 T00740013  RH  065%=      5-min Rain = 0
KBO1 141215Z 23009KT 07/01 A3004 RMK A01 T00740013  RH  065%=      5-min Rain = 0
KBO1 141216Z 23009KT 07/01 A3004 RMK A01 T00730013  RH  066%=      5-min Rain = 0
KBO1 141217Z 23009KT 07/01 A3004 RMK A01 T00720013  RH  067%=      5-min Rain = 0
KBO1 141218Z 23009KT 07/01 A3004 RMK A01 T00710014  RH  067%=      5-min Rain = 0
KBO1 141219Z 24009KT 07/01 A3004 RMK A01 T00700014  RH  067%=      5-min Rain = 0
KBO1 141220Z 24009KT 07/01 A3004 RMK A01 T00700014  RH  067%=      5-min Rain = 0
KBO1 141221Z 24009KT 07/01 A3004 RMK A01 T00700013  RH  067%=      5-min Rain = 0
KBO1 141222Z 24009KT 07/01 A3004 RMK A01 T00700013  RH  067%=      5-min Rain = 0
KBO1 141223Z 24009KT 07/01 A3004 RMK A01 T00710013  RH  067%=      5-min Rain = 0
KBO1 141224Z 24010KT 07/01 A3004 RMK A01 T00710013  RH  066%=      5-min Rain = 0
KBO1 141225Z 24009KT 07/01 A3004 RMK A01 T00720012  RH  066%=      5-min Rain = 0
KBO1 141226Z 24009KT 07/01 A3004 RMK A01 T00730013  RH  065%=      5-min Rain = 0
KBO1 141227Z 24009KT 07/01 A3004 RMK A01 T00740012  RH  065%=      5-min Rain = 0
KBO1 141228Z 24009KT 07/01 A3004 RMK A01 T00740012  RH  065%=      5-min Rain = 0
KBO1 141229Z 24009KT 08/01 A3004 RMK A01 T00750012  RH  065%=      5-min Rain = 0
KBO1 141230Z 25008KT 08/01 A3004 RMK A01 T00750012  RH  064%=      5-min Rain = 0
KBO1 141231Z 25008KT 08/01 A3004 RMK A01 T00750012  RH  064%=      5-min Rain = 0
KBO1 141232Z 24008KT 08/01 A3004 RMK A01 T00750012  RH  065%=      5-min Rain = 0
KBO1 141233Z 24008KT 08/01 A3004 RMK A01 T00750012  RH  064%=      5-min Rain = 0
KBO1 141234Z 25007KT 08/01 A3004 RMK A01 T00750012  RH  064%=      5-min Rain = 0
KBO1 141235Z 25007KT 08/01 A3004 RMK A01 T00760011  RH  064%=      5-min Rain = 0
KBO1 141236Z 25007KT 08/01 A3004 RMK A01 T00760011  RH  063%=      5-min Rain = 0
KBO1 141237Z 25008KT 08/01 A3004 RMK A01 T00770011  RH  063%=      5-min Rain = 0
KBO1 141238Z 24008KT 08/01 A3004 RMK A01 T00780011  RH  063%=      5-min Rain = 0
KBO1 141239Z 24008KT 08/01 A3004 RMK A01 T00790012  RH  063%=      5-min Rain = 0
KBO1 141240Z 24009KT 08/01 A3004 RMK A01 T00790012  RH  062%=      5-min Rain = 0
KBO1 141241Z 23008KT 08/01 A3004 RMK A01 T00810012  RH  062%=      5-min Rain = 0
KBO1 141242Z 23009KT 08/01 A3004 RMK A01 T00810012  RH  062%=      5-min Rain = 0
KBO1 141243Z 23009KT 08/01 A3004 RMK A01 T00810012  RH  062%=      5-min Rain = 0
KBO1 141244Z 23008KT 08/01 A3004 RMK A01 T00800012  RH  062%=      5-min Rain = 0
KBO1 141245Z 23009KT 08/01 A3004 RMK A01 T00780012  RH  063%=      5-min Rain = 0
KBO1 141246Z 23009KT 08/01 A3004 RMK A01 T00770013  RH  064%=      5-min Rain = 0
KBO1 141247Z 23009KT 08/01 A3004 RMK A01 T00760013  RH  064%=      5-min Rain = 0
KBO1 141248Z 23009KT 08/01 A3004 RMK A01 T00750013  RH  065%=      5-min Rain = 0
KBO1 141249Z 23009KT 08/01 A3004 RMK A01 T00750013  RH  065%=      5-min Rain = 0
KBO1 141250Z 24009KT 07/01 A3004 RMK A01 T00740013  RH  066%=      5-min Rain = 0
KBO1 141251Z 23009KT 07/01 A3004 RMK A01 T00730014  RH  066%=      5-min Rain = 0
KBO1 141252Z 23009KT 07/01 A3004 RMK A01 T00730014  RH  066%=      5-min Rain = 0
KBO1 141253Z 23009KT 07/02 A3004 RMK A01 T00730015  RH  066%=      5-min Rain = 0
KBO1 141254Z 23010KT 07/02 A3004 RMK A01 T00720015  RH  067%=      5-min Rain = 0
KBO1 141255Z 23010KT 07/02 A3004 RMK A01 T00710015  RH  067%=      5-min Rain = 0
KBO1 141256Z 23010KT 07/02 A3004 RMK A01 T00720015  RH  067%=      5-min Rain = 0
KBO1 141257Z 23010KT 07/02 A3004 RMK A01 T00720015  RH  067%=      5-min Rain = 0
KBO1 141258Z 23010KT 07/02 A3004 RMK A01 T00730016  RH  067%=      5-min Rain = 0
KBO1 141259Z 24010KT 07/02 A3004 RMK A01 T00730016  RH  067%=      5-min Rain = 0
KBO1 141300Z 24010KT 07/02 A3004 RMK A01 T00740016  RH  066%=      5-min Rain = 0
KBO1 141301Z 24010KT 08/02 A3004 RMK A01 T00760016  RH  066%=      5-min Rain = 0
KBO1 141302Z 24010KT 08/02 A3004 RMK A01 T00780016  RH  065%=      5-min Rain = 0
KBO1 141303Z 24009KT 08/02 A3004 RMK A01 T00800016  RH  064%=      5-min Rain = 0
KBO1 141304Z 24009KT 08/02 A3004 RMK A01 T00810016  RH  064%=      5-min Rain = 0
KBO1 141305Z 24010KT 08/02 A3004 RMK A01 T00820016  RH  063%=      5-min Rain = 0
KBO1 141306Z 24010KT 08/02 A3004 RMK A01 T00830016  RH  062%=      5-min Rain = 0
KBO1 141307Z 24010KT 09/02 A3004 RMK A01 T00850016  RH  062%=      5-min Rain = 0
KBO1 141308Z 25010KT 09/02 A3004 RMK A01 T00870016  RH  061%=      5-min Rain = 0
KBO1 141309Z 24010KT 09/02 A3004 RMK A01 T00890016  RH  060%=      5-min Rain = 0
KBO1 141310Z 24010KT 09/02 A3004 RMK A01 T00900016  RH  060%=      5-min Rain = 0
KBO1 141311Z 23010KT 09/02 A3004 RMK A01 T00910016  RH  060%=      5-min Rain = 0
KBO1 141312Z 23011KT 09/02 A3004 RMK A01 T00900016  RH  060%=      5-min Rain = 0
KBO1 141313Z 24011KT 09/02 A3004 RMK A01 T00890016  RH  060%=      5-min Rain = 0
KBO1 141314Z 23011KT 09/02 A3004 RMK A01 T00890016  RH  060%=      5-min Rain = 0
KBO1 141315Z 23011KT 09/02 A3004 RMK A01 T00890016  RH  060%=      5-min Rain = 0
KBO1 141316Z 23011KT 09/02 A3004 RMK A01 T00900016  RH  060%=      5-min Rain = 0
KBO1 141317Z 23011KT 09/02 A3004 RMK A01 T00900016  RH  060%=      5-min Rain = 0
KBO1 141318Z 23010KT 09/02 A3005 RMK A01 T00880016  RH  060%=      5-min Rain = 0
KBO1 141319Z 24011KT 09/02 A3005 RMK A01 T00880016  RH  061%=      5-min Rain = 0
KBO1 141320Z 24010KT 09/02 A3005 RMK A01 T00880016  RH  061%=      5-min Rain = 0
KBO1 141321Z 24011KT 09/02 A3005 RMK A01 T00880016  RH  061%=      5-min Rain = 0
KBO1 141322Z 24011KT 09/02 A3005 RMK A01 T00880016  RH  061%=      5-min Rain = 0
KBO1 141323Z 24010KT 09/02 A3005 RMK A01 T00880016  RH  061%=      5-min Rain = 0
KBO1 141324Z 24010KT 09/02 A3005 RMK A01 T00900017  RH  060%=      5-min Rain = 0
KBO1 141325Z 24010KT 09/02 A3004 RMK A01 T00910017  RH  060%=      5-min Rain = 0
KBO1 141326Z 24010KT 09/02 A3004 RMK A01 T00930017  RH  059%=      5-min Rain = 0
KBO1 141327Z 24010KT 10/02 A3004 RMK A01 T00950018  RH  059%=      5-min Rain = 0
KBO1 141328Z 24010KT 10/02 A3004 RMK A01 T00960018  RH  058%=      5-min Rain = 0
KBO1 141329Z 24010KT 10/02 A3004 RMK A01 T00980018  RH  058%=      5-min Rain = 0
KBO1 141330Z 24010KT 10/02 A3005 RMK A01 T01000019  RH  057%=      5-min Rain = 0
KBO1 141331Z 24010KT 10/02 A3005 RMK A01 T01020019  RH  056%=      5-min Rain = 0
KBO1 141332Z 24010KT 11/02 A3005 RMK A01 T01050020  RH  056%=      5-min Rain = 0
KBO1 141333Z 24010KT 11/02 A3005 RMK A01 T01070020  RH  055%=      5-min Rain = 0
KBO1 141334Z 24011KT 11/02 A3005 RMK A01 T01090020  RH  054%=      5-min Rain = 0
KBO1 141335Z 24010KT 11/02 A3005 RMK A01 T01120021  RH  053%=      5-min Rain = 0
KBO1 141336Z 24011KT 11/02 A3005 RMK A01 T01130020  RH  053%=      5-min Rain = 0
KBO1 141337Z 24011KT 12/02 A3005 RMK A01 T01150019  RH  052%=      5-min Rain = 0
KBO1 141338Z 24011KT 12/02 A3005 RMK A01 T01170020  RH  051%=      5-min Rain = 0
KBO1 141339Z 24011KT 12/02 A3005 RMK A01 T01180020  RH  051%=      5-min Rain = 0
KBO1 141340Z 23010KT 12/02 A3005 RMK A01 T01190020  RH  051%=      5-min Rain = 0
KBO1 141341Z 24010KT 12/02 A3005 RMK A01 T01190020  RH  051%=      5-min Rain = 0
KBO1 141342Z 23011KT 12/02 A3005 RMK A01 T01200020  RH  050%=      5-min Rain = 0
KBO1 141343Z 23010KT 12/02 A3005 RMK A01 T01200019  RH  050%=      5-min Rain = 0
KBO1 141344Z 23011KT 12/02 A3005 RMK A01 T01210020  RH  050%=      5-min Rain = 0
KBO1 141345Z 24011KT 12/02 A3005 RMK A01 T01210020  RH  050%=      5-min Rain = 0
KBO1 141346Z 23011KT 12/02 A3005 RMK A01 T01220020  RH  050%=      5-min Rain = 0
KBO1 141347Z 23011KT 12/02 A3005 RMK A01 T01220020  RH  050%=      5-min Rain = 0
KBO1 141348Z 23011KT 12/02 A3005 RMK A01 T01220020  RH  050%=      5-min Rain = 0
KBO1 141349Z 23011KT 12/02 A3005 RMK A01 T01220020  RH  049%=      5-min Rain = 0
KBO1 141350Z 23011KT 12/02 A3005 RMK A01 T01230020  RH  049%=      5-min Rain = 0
KBO1 141351Z 23011KT 12/02 A3005 RMK A01 T01240021  RH  049%=      5-min Rain = 0
KBO1 141352Z 23010KT 13/02 A3005 RMK A01 T01250022  RH  049%=      5-min Rain = 0
KBO1 141353Z 23011KT 13/02 A3005 RMK A01 T01260022  RH  049%=      5-min Rain = 0
KBO1 141354Z 23011KT 13/02 A3005 RMK A01 T01270022  RH  049%=      5-min Rain = 0
KBO1 141355Z 23011KT 13/02 A3005 RMK A01 T01280022  RH  048%=      5-min Rain = 0
KBO1 141356Z 24010KT 13/02 A3005 RMK A01 T01300023  RH  048%=      5-min Rain = 0
KBO1 141357Z 23011KT 13/02 A3005 RMK A01 T01310023  RH  048%=      5-min Rain = 0
KBO1 141358Z 23011KT 13/02 A3005 RMK A01 T01320024  RH  048%=      5-min Rain = 0
KBO1 141359Z 23010KT 13/02 A3005 RMK A01 T01340024  RH  047%=      5-min Rain = 0
KBO1 141400Z 24010KT 14/03 A3005 RMK A01 T01360025  RH  047%=      5-min Rain = 0
KBO1 141401Z 24010KT 14/03 A3005 RMK A01 T01370026  RH  047%=      5-min Rain = 0
KBO1 141402Z 24010KT 14/03 A3005 RMK A01 T01390025  RH  046%=      5-min Rain = 0
KBO1 141403Z 23009KT 14/03 A3005 RMK A01 T01410027  RH  046%=      5-min Rain = 0
KBO1 141404Z 24010KT 14/03 A3005 RMK A01 T01420027  RH  046%=      5-min Rain = 0
KBO1 141405Z 24011KT 14/03 A3005 RMK A01 T01430025  RH  045%=      5-min Rain = 0
KBO1 141406Z 24011KT 15/03 A3005 RMK A01 T01450026  RH  045%=      5-min Rain = 0
KBO1 141407Z 24011KT 15/03 A3005 RMK A01 T01470026  RH  044%=      5-min Rain = 0
KBO1 141408Z 24010KT 15/03 A3005 RMK A01 T01480026  RH  044%=      5-min Rain = 0
KBO1 141409Z 24011KT 15/03 A3005 RMK A01 T01500027  RH  044%=      5-min Rain = 0
KBO1 141410Z 24012KT 15/03 A3005 RMK A01 T01520026  RH  043%=      5-min Rain = 0
KBO1 141411Z 24012KT 15/03 A3006 RMK A01 T01540025  RH  042%=      5-min Rain = 0
KBO1 141412Z 24011KT 16/03 A3006 RMK A01 T01550025  RH  042%=      5-min Rain = 0
KBO1 141413Z 24011KT 16/03 A3006 RMK A01 T01570025  RH  041%=      5-min Rain = 0
KBO1 141414Z 24012KT 16/02 A3006 RMK A01 T01590024  RH  040%=      5-min Rain = 0
KBO1 141415Z 24012KT 16/02 A3006 RMK A01 T01600023  RH  040%=      5-min Rain = 0
KBO1 141416Z 24012KT 16/02 A3006 RMK A01 T01610024  RH  040%=      5-min Rain = 0
KBO1 141417Z 24011KT 16/02 A3006 RMK A01 T01610022  RH  039%=      5-min Rain = 0
KBO1 141418Z 24011KT 16/02 A3006 RMK A01 T01620023  RH  039%=      5-min Rain = 0
KBO1 141419Z 24010KT 16/02 A3006 RMK A01 T01630024  RH  039%=      5-min Rain = 0
KBO1 141420Z 24010KT 16/03 A3006 RMK A01 T01640026  RH  039%=      5-min Rain = 0
KBO1 141421Z 24009KT 16/03 A3006 RMK A01 T01640028  RH  040%=      5-min Rain = 0
KBO1 141422Z 24011KT 17/03 A3006 RMK A01 T01650027  RH  040%=      5-min Rain = 0
KBO1 141423Z 24012KT 17/02 A3006 RMK A01 T01650023  RH  038%=      5-min Rain = 0
KBO1 141424Z 24012KT 17/02 A3006 RMK A01 T01650024  RH  039%=      5-min Rain = 0
KBO1 141425Z 24012KT 17/02 A3006 RMK A01 T01650024  RH  039%=      5-min Rain = 0
KBO1 141426Z 24011KT 17/02 A3006 RMK A01 T01650024  RH  039%=      5-min Rain = 0
KBO1 141427Z 24012KT 17/02 A3006 RMK A01 T01650024  RH  039%=      5-min Rain = 0
KBO1 141428Z 24011KT 17/02 A3006 RMK A01 T01650023  RH  039%=      5-min Rain = 0
KBO1 141429Z 24011KT 17/02 A3006 RMK A01 T01650023  RH  038%=      5-min Rain = 0
KBO1 141430Z 24011KT 17/03 A3006 RMK A01 T01660025  RH  039%=      5-min Rain = 0
KBO1 141431Z 24012KT 17/03 A3006 RMK A01 T01660026  RH  039%=      5-min Rain = 0
KBO1 141432Z 24012KT 17/03 A3006 RMK A01 T01670026  RH  039%=      5-min Rain = 0
KBO1 141433Z 24013KT 17/03 A3006 RMK A01 T01680027  RH  039%=      5-min Rain = 0
KBO1 141434Z 24012KT 17/03 A3006 RMK A01 T01690028  RH  039%=      5-min Rain = 0
KBO1 141435Z 24012KT 17/03 A3006 RMK A01 T01690027  RH  038%=      5-min Rain = 0
KBO1 141436Z 24011KT 17/03 A3006 RMK A01 T01700028  RH  038%=      5-min Rain = 0
KBO1 141437Z 25011KT 17/03 A3006 RMK A01 T01710029  RH  038%=      5-min Rain = 0
KBO1 141438Z 25012KT 17/03 A3006 RMK A01 T01730028  RH  038%=      5-min Rain = 0
KBO1 141439Z 25012KT 17/03 A3006 RMK A01 T01740028  RH  037%=      5-min Rain = 0
KBO1 141440Z 25011KT 18/03 A3006 RMK A01 T01760028  RH  037%=      5-min Rain = 0
KBO1 141441Z 24012KT 18/03 A3006 RMK A01 T01770028  RH  037%=      5-min Rain = 0
KBO1 141442Z 24012KT 18/03 A3006 RMK A01 T01780028  RH  036%=      5-min Rain = 0
KBO1 141443Z 24014KT 18/03 A3006 RMK A01 T01800026  RH  036%=      5-min Rain = 0
KBO1 141444Z 24013KT 18/03 A3006 RMK A01 T01810026  RH  036%=      5-min Rain = 0
KBO1 141445Z 24013KT 18/03 A3006 RMK A01 T01820027  RH  036%=      5-min Rain = 0
KBO1 141446Z 24012KT 18/03 A3006 RMK A01 T01840028  RH  035%=      5-min Rain = 0
KBO1 141447Z 24013KT 18/03 A3006 RMK A01 T01840027  RH  035%=      5-min Rain = 0
KBO1 141448Z 24013KT 19/03 A3006 RMK A01 T01850027  RH  035%=      5-min Rain = 0
KBO1 141449Z 24014KT 19/03 A3006 RMK A01 T01860027  RH  035%=      5-min Rain = 0
KBO1 141450Z 24013KT 19/03 A3006 RMK A01 T01860025  RH  034%=      5-min Rain = 0
KBO1 141451Z 23013KT 19/03 A3007 RMK A01 T01860028  RH  035%=      5-min Rain = 0
KBO1 141452Z 24015KT 19/03 A3007 RMK A01 T01860026  RH  034%=      5-min Rain = 0
KBO1 141453Z 24014KT 19/03 A3007 RMK A01 T01870026  RH  034%=      5-min Rain = 0
KBO1 141454Z 24012KT 19/03 A3007 RMK A01 T01870028  RH  035%=      5-min Rain = 0
KBO1 141455Z 24014KT 19/03 A3007 RMK A01 T01880027  RH  034%=      5-min Rain = 0
KBO1 141456Z 24014KT 19/03 A3007 RMK A01 T01890028  RH  034%=      5-min Rain = 0
KBO1 141457Z 24014KT 19/03 A3007 RMK A01 T01900026  RH  034%=      5-min Rain = 0
KBO1 141458Z 25016KT 19/03 A3007 RMK A01 T01900027  RH  034%=      5-min Rain = 0
KBO1 141459Z 25015KT 19/03 A3007 RMK A01 T01900026  RH  034%=      5-min Rain = 0
KBO1 141500Z 24013KT 19/03 A3007 RMK A01 T01900027  RH  034%=      5-min Rain = 0
KBO1 141501Z 24014KT 19/03 A3007 RMK A01 T01910030  RH  034%=      5-min Rain = 0
KBO1 141502Z 24016KT 19/03 A3007 RMK A01 T01930026  RH  033%=      5-min Rain = 0
KBO1 141503Z 24014KT 19/03 A3007 RMK A01 T01930026  RH  033%=      5-min Rain = 0
KBO1 141504Z 24014KT 19/03 A3007 RMK A01 T01930029  RH  033%=      5-min Rain = 0
KBO1 141505Z 25015KT 19/03 A3007 RMK A01 T01940026  RH  033%=      5-min Rain = 0
KBO1 141506Z 25016KT 20/03 A3007 RMK A01 T01950026  RH  032%=      5-min Rain = 0
KBO1 141507Z 25014KT 20/02 A3007 RMK A01 T01950023  RH  032%=      5-min Rain = 0
KBO1 141508Z 25013KT 20/03 A3007 RMK A01 T01950026  RH  033%=      5-min Rain = 0
KBO1 141509Z 26014KT 20/03 A3007 RMK A01 T01960027  RH  033%=      5-min Rain = 0
KBO1 141510Z 26014KT 20/03 A3007 RMK A01 T01960025  RH  032%=      5-min Rain = 0
KBO1 141511Z 25016KT 20/03 A3007 RMK A01 T01970025  RH  032%=      5-min Rain = 0
KBO1 141512Z 26013KT 20/02 A3007 RMK A01 T01970024  RH  032%=      5-min Rain = 0
KBO1 141513Z 24015KT 20/03 A3007 RMK A01 T01970028  RH  033%=      5-min Rain = 0
KBO1 141514Z 25016KT 20/03 A3007 RMK A01 T01980026  RH  032%=      5-min Rain = 0
KBO1 141515Z 25017KT 20/03 A3007 RMK A01 T01980027  RH  032%=      5-min Rain = 0
KBO1 141516Z 25013KT 20/03 A3007 RMK A01 T01980026  RH  032%=      5-min Rain = 0
KBO1 141517Z 26013KT 20/03 A3007 RMK A01 T01980028  RH  032%=      5-min Rain = 0
KBO1 141518Z 25014KT 20/03 A3007 RMK A01 T01990027  RH  032%=      5-min Rain = 0
KBO1 141519Z 25015KT 20/03 A3007 RMK A01 T01990028  RH  032%=      5-min Rain = 0
KBO1 141520Z 25016KT 20/03 A3007 RMK A01 T01990026  RH  032%=      5-min Rain = 0
KBO1 141521Z 25012KT 20/03 A3007 RMK A01 T01990026  RH  032%=      5-min Rain = 0
KBO1 141522Z 25013G18KT 20/03 A3007 RMK A01 T02000030  RH  032%=      5-min Rain = 0
KBO1 141523Z 25016KT 20/03 A3006 RMK A01 T02010029  RH  032%=      5-min Rain = 0
KBO1 141524Z 25016KT 20/03 A3007 RMK A01 T02020028  RH  032%=      5-min Rain = 0
KBO1 141525Z 25016KT 20/03 A3007 RMK A01 T02020027  RH  031%=      5-min Rain = 0
KBO1 141526Z 25016KT 20/03 A3007 RMK A01 T02020027  RH  031%=      5-min Rain = 0
KBO1 141527Z 25015KT 20/03 A3007 RMK A01 T02020028  RH  032%=      5-min Rain = 0
KBO1 141528Z 24015KT 20/03 A3007 RMK A01 T02020028  RH  032%=      5-min Rain = 0
KBO1 141529Z 25014KT 20/03 A3006 RMK A01 T02020028  RH  031%=      5-min Rain = 0
KBO1 141530Z 25014KT 20/03 A3006 RMK A01 T02030030  RH  032%=      5-min Rain = 0
KBO1 141531Z 24017KT 20/03 A3006 RMK A01 T02040029  RH  031%=      5-min Rain = 0
KBO1 141532Z 25015KT 20/03 A3006 RMK A01 T02040027  RH  031%=      5-min Rain = 0
KBO1 141533Z 25014KT 20/03 A3006 RMK A01 T02040029  RH  032%=      5-min Rain = 0
KBO1 141534Z 25014KT 20/03 A3006 RMK A01 T02040028  RH  031%=      5-min Rain = 0
KBO1 141535Z 25013KT 21/03 A3006 RMK A01 T02050029  RH  031%=      5-min Rain = 0
KBO1 141536Z 26013KT 21/03 A3006 RMK A01 T02050029  RH  031%=      5-min Rain = 0
KBO1 141537Z 25012KT 21/03 A3006 RMK A01 T02070032  RH  032%=      5-min Rain = 0
KBO1 141538Z 25013KT 21/03 A3006 RMK A01 T02080033  RH  031%=      5-min Rain = 0
KBO1 141539Z 24012KT 21/04 A3006 RMK A01 T02100035  RH  032%=      5-min Rain = 0
KBO1 141540Z 24015KT 21/03 A3006 RMK A01 T02110032  RH  031%=      5-min Rain = 0
KBO1 141541Z 24015KT 21/03 A3006 RMK A01 T02100030  RH  030%=      5-min Rain = 0
KBO1 141542Z 25014KT 21/03 A3006 RMK A01 T02100029  RH  030%=      5-min Rain = 0
KBO1 141543Z 25014KT 21/03 A3006 RMK A01 T02090029  RH  031%=      5-min Rain = 0
KBO1 141544Z 24015KT 21/03 A3006 RMK A01 T02090030  RH  031%=      5-min Rain = 0
KBO1 141545Z 24015KT 21/03 A3006 RMK A01 T02100030  RH  031%=      5-min Rain = 0
KBO1 141546Z 25015KT 21/03 A3006 RMK A01 T02110029  RH  030%=      5-min Rain = 0
KBO1 141547Z 26014KT 21/03 A3006 RMK A01 T02110028  RH  030%=      5-min Rain = 0
KBO1 141548Z 26013KT 21/03 A3006 RMK A01 T02110031  RH  031%=      5-min Rain = 0
KBO1 141549Z 25015KT 21/03 A3006 RMK A01 T02120029  RH  030%=      5-min Rain = 0
KBO1 141550Z 25015KT 21/03 A3006 RMK A01 T02130029  RH  030%=      5-min Rain = 0
KBO1 141551Z 26016KT 21/03 A3006 RMK A01 T02130029  RH  030%=      5-min Rain = 0
KBO1 141552Z 26012KT 21/03 A3006 RMK A01 T02140028  RH  029%=      5-min Rain = 0
KBO1 141553Z 27012KT 21/03 A3006 RMK A01 T02140028  RH  029%=      5-min Rain = 0
KBO1 141554Z 25012KT 22/03 A3006 RMK A01 T02150030  RH  030%=      5-min Rain = 0
KBO1 141555Z 25014KT 22/03 A3006 RMK A01 T02160031  RH  030%=      5-min Rain = 0
KBO1 141556Z 26015KT 22/03 A3006 RMK A01 T02160029  RH  029%=      5-min Rain = 0
KBO1 141557Z 26015KT 22/03 A3006 RMK A01 T02150029  RH  029%=      5-min Rain = 0
KBO1 141558Z 26014KT 22/03 A3006 RMK A01 T02150028  RH  029%=      5-min Rain = 0
KBO1 141559Z 25013KT 22/04 A3006 RMK A01 T02160035  RH  030%=      5-min Rain = 0
KBO1 141600Z 24015KT 22/03 A3006 RMK A01 T02180032  RH  029%=      5-min Rain = 0
KBO1 141601Z 25013KT 22/03 A3006 RMK A01 T02180033  RH  030%=      5-min Rain = 0
KBO1 141602Z 25013KT 22/03 A3006 RMK A01 T02180032  RH  029%=      5-min Rain = 0
KBO1 141603Z 24014KT 22/03 A3006 RMK A01 T02180031  RH  029%=      5-min Rain = 0
KBO1 141604Z 25015KT 22/03 A3006 RMK A01 T02180030  RH  029%=      5-min Rain = 0
KBO1 141605Z 24015KT 22/03 A3006 RMK A01 T02170030  RH  029%=      5-min Rain = 0
KBO1 141606Z 24011KT 22/03 A3006 RMK A01 T02170030  RH  029%=      5-min Rain = 0
KBO1 141607Z 24015KT 22/03 A3006 RMK A01 T02180030  RH  029%=      5-min Rain = 0
KBO1 141608Z 25012KT 22/03 A3006 RMK A01 T02180027  RH  028%=      5-min Rain = 0
KBO1 141609Z 25011KT 22/03 A3006 RMK A01 T02190032  RH  029%=      5-min Rain = 0
KBO1 141610Z 24011KT 22/04 A3006 RMK A01 T02200036  RH  030%=      5-min Rain = 0
KBO1 141611Z 25012KT 22/03 A3006 RMK A01 T02220034  RH  029%=      5-min Rain = 0
KBO1 141612Z 24013KT 22/03 A3006 RMK A01 T02210034  RH  029%=      5-min Rain = 0
KBO1 141613Z 24014KT 22/03 A3006 RMK A01 T02210031  RH  029%=      5-min Rain = 0
KBO1 141614Z 25013KT 22/03 A3006 RMK A01 T02210029  RH  028%=      5-min Rain = 0
KBO1 141615Z 24014KT 22/03 A3005 RMK A01 T02200030  RH  029%=      5-min Rain = 0
KBO1 141616Z 23013KT 22/03 A3005 RMK A01 T02200031  RH  029%=      5-min Rain = 0
KBO1 141617Z 23012KT 22/03 A3005 RMK A01 T02200032  RH  029%=      5-min Rain = 0
KBO1 141618Z 24012KT 22/04 A3005 RMK A01 T02210037  RH  030%=      5-min Rain = 0
KBO1 141619Z 24014KT 22/03 A3005 RMK A01 T02220033  RH  029%=      5-min Rain = 0
KBO1 141620Z 24013KT 22/04 A3005 RMK A01 T02230035  RH  029%=      5-min Rain = 0
KBO1 141621Z 24015KT 22/03 A3005 RMK A01 T02240033  RH  029%=      5-min Rain = 0
KBO1 141622Z 24014KT 23/03 A3005 RMK A01 T02250033  RH  028%=      5-min Rain = 0
KBO1 141623Z 24014KT 23/03 A3005 RMK A01 T02250027  RH  027%=      5-min Rain = 0
KBO1 141624Z 24011KT 23/03 A3005 RMK A01 T02250031  RH  028%=      5-min Rain = 0
KBO1 141625Z 25013KT 23/03 A3005 RMK A01 T02270033  RH  028%=      5-min Rain = 0
KBO1 141626Z 24012KT 23/03 A3005 RMK A01 T02280032  RH  028%=      5-min Rain = 0
KBO1 141627Z 23013KT 23/04 A3005 RMK A01 T02280035  RH  028%=      5-min Rain = 0
KBO1 141628Z 23014KT 23/03 A3005 RMK A01 T02280032  RH  028%=      5-min Rain = 0
KBO1 141629Z 24012KT 23/03 A3005 RMK A01 T02270033  RH  028%=      5-min Rain = 0
KBO1 141630Z 24010KT 23/04 A3005 RMK A01 T02290038  RH  029%=      5-min Rain = 0
KBO1 141631Z 25014KT 23/04 A3005 RMK A01 T02320038  RH  028%=      5-min Rain = 0
KBO1 141632Z 24012KT 23/04 A3005 RMK A01 T02330035  RH  028%=      5-min Rain = 0
KBO1 141633Z 24011KT 23/04 A3005 RMK A01 T02340035  RH  027%=      5-min Rain = 0
KBO1 141634Z 24013KT 24/03 A3005 RMK A01 T02350032  RH  027%=      5-min Rain = 0
KBO1 141635Z 24013KT 23/03 A3005 RMK A01 T02330032  RH  027%=      5-min Rain = 0
KBO1 141636Z 23013KT 23/04 A3005 RMK A01 T02320038  RH  028%=      5-min Rain = 0
KBO1 141637Z 23012KT 23/03 A3005 RMK A01 T02330034  RH  027%=      5-min Rain = 0
KBO1 141638Z 23014KT 23/03 A3005 RMK A01 T02330033  RH  027%=      5-min Rain = 0
KBO1 141639Z 24013KT 23/03 A3005 RMK A01 T02330032  RH  027%=      5-min Rain = 0
KBO1 141640Z 25015KT 23/03 A3005 RMK A01 T02330029  RH  026%=      5-min Rain = 0
KBO1 141641Z 24013KT 23/03 A3005 RMK A01 T02330030  RH  026%=      5-min Rain = 0
KBO1 141642Z 23012KT 23/03 A3005 RMK A01 T02330028  RH  026%=      5-min Rain = 0
KBO1 141643Z 23012KT 23/03 A3005 RMK A01 T02330032  RH  027%=      5-min Rain = 0
KBO1 141644Z 23013KT 23/03 A3005 RMK A01 T02340033  RH  027%=      5-min Rain = 0
KBO1 141645Z 23014KT 24/03 A3005 RMK A01 T02350029  RH  026%=      5-min Rain = 0
KBO1 141646Z 24014KT 23/03 A3005 RMK A01 T02340030  RH  026%=      5-min Rain = 0
KBO1 141647Z 24012KT 23/03 A3005 RMK A01 T02340031  RH  027%=      5-min Rain = 0
KBO1 141648Z 24013KT 23/03 A3005 RMK A01 T02340032  RH  027%=      5-min Rain = 0
KBO1 141649Z 24013KT 23/03 A3004 RMK A01 T02340031  RH  027%=      5-min Rain = 0
KBO1 141650Z 23010G15KT 23/04 A3005 RMK A01 T02340037  RH  028%=      5-min Rain = 0
KBO1 141651Z 23012KT 24/03 A3004 RMK A01 T02370034  RH  027%=      5-min Rain = 0
KBO1 141652Z 22014KT 24/03 A3004 RMK A01 T02360034  RH  027%=      5-min Rain = 0
KBO1 141653Z 24011KT 24/04 A3004 RMK A01 T02360036  RH  027%=      5-min Rain = 0
KBO1 141654Z 24013KT 24/04 A3004 RMK A01 T02400040  RH  027%=      5-min Rain = 0
KBO1 141655Z 23012KT 24/04 A3004 RMK A01 T02430039  RH  027%=      5-min Rain = 0
KBO1 141656Z 22013KT 24/04 A3004 RMK A01 T02430037  RH  026%=      5-min Rain = 0
KBO1 141657Z 23011KT 24/04 A3004 RMK A01 T02410035  RH  026%=      5-min Rain = 0
KBO1 141658Z 23011KT 24/04 A3004 RMK A01 T02410039  RH  027%=      5-min Rain = 0
KBO1 141659Z 23014KT 24/04 A3004 RMK A01 T02430036  RH  026%=      5-min Rain = 0
KBO1 141700Z 23014KT 24/03 A3004 RMK A01 T02420034  RH  026%=      5-min Rain = 0
KBO1 141701Z 23013KT 24/03 A3004 RMK A01 T02400032  RH  026%=      5-min Rain = 0
KBO1 141702Z 23015KT 24/03 A3004 RMK A01 T02390031  RH  026%=      5-min Rain = 0
KBO1 141703Z 23014KT 24/03 A3004 RMK A01 T02390029  RH  025%=      5-min Rain = 0
KBO1 141704Z 23014KT 24/03 A3004 RMK A01 T02400029  RH  025%=      5-min Rain = 0
KBO1 141705Z 23013KT 24/03 A3004 RMK A01 T02410028  RH  025%=      5-min Rain = 0
KBO1 141706Z 24011KT 24/03 A3004 RMK A01 T02410029  RH  025%=      5-min Rain = 0
KBO1 141707Z 23012KT 24/03 A3004 RMK A01 T02410032  RH  026%=      5-min Rain = 0
KBO1 141708Z 22011KT 24/04 A3004 RMK A01 T02420035  RH  026%=      5-min Rain = 0
KBO1 141709Z 22013KT 24/03 A3004 RMK A01 T02440031  RH  025%=      5-min Rain = 0
KBO1 141710Z 22012KT 24/03 A3004 RMK A01 T02440033  RH  025%=      5-min Rain = 0
KBO1 141711Z 23011KT 25/03 A3004 RMK A01 T02450032  RH  025%=      5-min Rain = 0
KBO1 141712Z 24012KT 25/03 A3004 RMK A01 T02460031  RH  025%=      5-min Rain = 0
KBO1 141713Z 24012KT 25/04 A3004 RMK A01 T02460036  RH  025%=      5-min Rain = 0
KBO1 141714Z 24014KT 25/04 A3004 RMK A01 T02460035  RH  025%=      5-min Rain = 0
KBO1 141715Z 23013KT 25/04 A3004 RMK A01 T02460036  RH  026%=      5-min Rain = 0
KBO1 141716Z 24012KT 25/04 A3004 RMK A01 T02460038  RH  026%=      5-min Rain = 0
KBO1 141717Z 24012KT 25/04 A3004 RMK A01 T02460036  RH  026%=      5-min Rain = 0
KBO1 141718Z 22012KT 25/04 A3004 RMK A01 T02470038  RH  026%=      5-min Rain = 0
KBO1 141719Z 23014KT 25/03 A3004 RMK A01 T02480034  RH  025%=      5-min Rain = 0
KBO1 141720Z 23014KT 25/03 A3004 RMK A01 T02470031  RH  025%=      5-min Rain = 0
KBO1 141721Z 23011KT 25/03 A3004 RMK A01 T02460030  RH  024%=      5-min Rain = 0
KBO1 141722Z 22011KT 25/03 A3004 RMK A01 T02450031  RH  025%=      5-min Rain = 0
KBO1 141723Z 23014KT 25/03 A3004 RMK A01 T02450031  RH  025%=      5-min Rain = 0
KBO1 141724Z 23015KT 25/03 A3004 RMK A01 T02450030  RH  025%=      5-min Rain = 0
KBO1 141725Z 23013KT 24/03 A3004 RMK A01 T02440026  RH  024%=      5-min Rain = 0
KBO1 141726Z 24013KT 24/03 A3004 RMK A01 T02420030  RH  025%=      5-min Rain = 0
KBO1 141727Z 24013KT 24/03 A3004 RMK A01 T02430030  RH  025%=      5-min Rain = 0
KBO1 141728Z 22012KT 24/03 A3004 RMK A01 T02440031  RH  025%=      5-min Rain = 0
KBO1 141729Z 21013KT 25/03 A3004 RMK A01 T02450034  RH  025%=      5-min Rain = 0
KBO1 141730Z 22013KT 25/03 A3004 RMK A01 T02470028  RH  024%=      5-min Rain = 0
KBO1 141731Z 21012KT 25/03 A3004 RMK A01 T02490028  RH  024%=      5-min Rain = 0
KBO1 141732Z 23014KT 25/03 A3003 RMK A01 T02490029  RH  024%=      5-min Rain = 0
KBO1 141733Z 23011KT 25/03 A3003 RMK A01 T02480030  RH  024%=      5-min Rain = 0
KBO1 141734Z 23011KT 25/03 A3003 RMK A01 T02470033  RH  025%=      5-min Rain = 0
KBO1 141735Z 24014KT 25/03 A3003 RMK A01 T02480033  RH  025%=      5-min Rain = 0
KBO1 141736Z 24014KT 25/03 A3003 RMK A01 T02490034  RH  025%=      5-min Rain = 0
KBO1 141737Z 24013KT 25/04 A3003 RMK A01 T02480035  RH  025%=      5-min Rain = 0
KBO1 141738Z 24011KT 25/04 A3003 RMK A01 T02470036  RH  025%=      5-min Rain = 0
KBO1 141739Z 25013KT 25/04 A3003 RMK A01 T02470036  RH  025%=      5-min Rain = 0
KBO1 141740Z 23012KT 25/04 A3003 RMK A01 T02480038  RH  026%=      5-min Rain = 0
KBO1 141741Z 22015KT 25/03 A3003 RMK A01 T02520030  RH  024%=      5-min Rain = 0
KBO1 141742Z 22014KT 25/02 A3003 RMK A01 T02510024  RH  023%=      5-min Rain = 0
KBO1 141743Z 23012KT 25/03 A3003 RMK A01 T02470027  RH  024%=      5-min Rain = 0
KBO1 141744Z 23011KT 25/04 A3003 RMK A01 T02490035  RH  025%=      5-min Rain = 0
KBO1 141745Z 23010KT 25/03 A3003 RMK A01 T02510034  RH  024%=      5-min Rain = 0
KBO1 141746Z 23011KT 25/03 A3003 RMK A01 T02510034  RH  024%=      5-min Rain = 0
KBO1 141747Z 23014KT 25/03 A3003 RMK A01 T02530030  RH  024%=      5-min Rain = 0
KBO1 141748Z 23013KT 25/02 A3003 RMK A01 T02530021  RH  022%=      5-min Rain = 0
KBO1 141749Z 21011KT 25/02 A3003 RMK A01 T02510024  RH  023%=      5-min Rain = 0
KBO1 141750Z 23013KT 25/03 A3003 RMK A01 T02510029  RH  024%=      5-min Rain = 0
KBO1 141751Z 23012KT 25/03 A3003 RMK A01 T02520026  RH  023%=      5-min Rain = 0
KBO1 141752Z 23013KT 25/02 A3003 RMK A01 T02510021  RH  022%=      5-min Rain = 0
KBO1 141753Z 22013KT 25/02 A3003 RMK A01 T02510023  RH  023%=      5-min Rain = 0
KBO1 141754Z 23012KT 25/03 A3003 RMK A01 T02520025  RH  023%=      5-min Rain = 0
KBO1 141755Z 23011KT 25/03 A3003 RMK A01 T02520025  RH  023%=      5-min Rain = 0
KBO1 141756Z 22012KT 25/02 A3003 RMK A01 T02520023  RH  023%=      5-min Rain = 0
KBO1 141757Z 23013KT 25/02 A3003 RMK A01 T02520018  RH  022%=      5-min Rain = 0
KBO1 141758Z 24014KT 25/02 A3002 RMK A01 T02500015  RH  021%=      5-min Rain = 0
KBO1 141759Z 23016KT 25/01 A3002 RMK A01 T02510014  RH  021%=      5-min Rain = 0
KBO1 141800Z 23012KT 25/01 A3003 RMK A01 T02520014  RH  021%=      5-min Rain = 0
KBO1 141801Z 23013KT 25/02 A3003 RMK A01 T02530015  RH  021%=      5-min Rain = 0
KBO1 141802Z 23010KT 25/02 A3003 RMK A01 T02530018  RH  022%=      5-min Rain = 0
KBO1 141803Z 23011KT 25/02 A3002 RMK A01 T02520019  RH  022%=      5-min Rain = 0
KBO1 141804Z 24014KT 25/02 A3002 RMK A01 T02540017  RH  021%=      5-min Rain = 0
KBO1 141805Z 24014KT 25/02 A3002 RMK A01 T02540018  RH  021%=      5-min Rain = 0
KBO1 141806Z 24013KT 25/02 A3002 RMK A01 T02540015  RH  021%=      5-min Rain = 0
KBO1 141807Z 23009KT 25/02 A3002 RMK A01 T02540019  RH  022%=      5-min Rain = 0
KBO1 141808Z 23013KT 26/02 A3002 RMK A01 T02550022  RH  022%=      5-min Rain = 0
KBO1 141809Z 23013KT 26/02 A3002 RMK A01 T02570018  RH  021%=      5-min Rain = 0
KBO1 141810Z 24013KT 26/02 A3002 RMK A01 T02560018  RH  021%=      5-min Rain = 0
KBO1 141811Z 24012KT 26/02 A3002 RMK A01 T02550018  RH  021%=      5-min Rain = 0
KBO1 141812Z 26011KT 26/02 A3002 RMK A01 T02550018  RH  021%=      5-min Rain = 0
KBO1 141813Z 25010KT 26/02 A3002 RMK A01 T02550018  RH  021%=      5-min Rain = 0
KBO1 141814Z 23013KT 26/02 A3002 RMK A01 T02550020  RH  022%=      5-min Rain = 0
KBO1 141815Z 23009KT 26/01 A3002 RMK A01 T02560014  RH  021%=      5-min Rain = 0
KBO1 141816Z 23012KT 26/01 A3002 RMK A01 T02550013  RH  021%=      5-min Rain = 0
KBO1 141817Z 25013KT 26/01 A3002 RMK A01 T02570014  RH  020%=      5-min Rain = 0
KBO1 141818Z 24012KT 26/01 A3002 RMK A01 T02580014  RH  020%=      5-min Rain = 0
KBO1 141819Z 23012KT 26/01 A3002 RMK A01 T02570014  RH  020%=      5-min Rain = 0
KBO1 141820Z 24011KT 26/02 A3002 RMK A01 T02570016  RH  021%=      5-min Rain = 0
KBO1 141821Z 24012KT 26/01 A3002 RMK A01 T02590014  RH  020%=      5-min Rain = 0
KBO1 141822Z 23012KT 26/01 A3002 RMK A01 T02590011  RH  020%=      5-min Rain = 0
KBO1 141823Z 23012KT 26/00 A3002 RMK A01 T02590004  RH  019%=      5-min Rain = 0
KBO1 141824Z 24013KT 26/01 A3002 RMK A01 T02580008  RH  019%=      5-min Rain = 0
KBO1 141825Z 24011KT 26/01 A3002 RMK A01 T02590012  RH  020%=      5-min Rain = 0
KBO1 141826Z 23009KT 26/01 A3001 RMK A01 T02590014  RH  020%=      5-min Rain = 0
KBO1 141827Z 23009KT 26/02 A3001 RMK A01 T02590016  RH  020%=      5-min Rain = 0
KBO1 141828Z 24013KT 26/01 A3001 RMK A01 T02610011  RH  019%=      5-min Rain = 0
KBO1 141829Z 23010KT 26/01 A3001 RMK A01 T02600008  RH  019%=      5-min Rain = 0
KBO1 141830Z 24014KT 26/01 A3001 RMK A01 T02610008  RH  019%=      5-min Rain = 0
KBO1 141831Z 25012KT 26/00 A3001 RMK A01 T02620004  RH  019%=      5-min Rain = 0
KBO1 141832Z 25014KT 26/01 A3001 RMK A01 T02610011  RH  020%=      5-min Rain = 0
KBO1 141833Z 25014KT 26/02 A3001 RMK A01 T02620015  RH  020%=      5-min Rain = 0
KBO1 141834Z 25011KT 26/01 A3001 RMK A01 T02620006  RH  019%=      5-min Rain = 0
KBO1 141835Z 23008KT 26/01 A3001 RMK A01 T02590011  RH  020%=      5-min Rain = 0
KBO1 141836Z 22012KT 26/01 A3001 RMK A01 T02600014  RH  020%=      5-min Rain = 0
KBO1 141837Z 21011KT 26/01 A3001 RMK A01 T02630011  RH  019%=      5-min Rain = 0
KBO1 141838Z 22011KT 26/02 A3001 RMK A01 T02620017  RH  020%=      5-min Rain = 0
KBO1 141839Z 23012G18KT 26/01 A3001 RMK A01 T02630012  RH  019%=      5-min Rain = 0
KBO1 141840Z 24015KT 26/01 A3001 RMK A01 T02630008  RH  019%=      5-min Rain = 0
KBO1 141841Z 23009KT 26/00 A3001 RMK A01 T02610004  RH  019%=      5-min Rain = 0
KBO1 141842Z 25010KT 26/02 A30 RMK A01 T02600016  RH  021%=      5-min Rain = 0
KBO1 141843Z 21013KT 26/01 A30 RMK A01 T02630014  RH  020%=      5-min Rain = 0
KBO1 141844Z 23013G18KT 27/01 A30 RMK A01 T02650012  RH  019%=      5-min Rain = 0
KBO1 141845Z 22013KT 26/01 A30 RMK A01 T02640013  RH  020%=      5-min Rain = 0
KBO1 141846Z 24016G24KT 26/01 A30 RMK A01 T02630006  RH  019%=      5-min Rain = 0
KBO1 141847Z 22015G20KT 26/01 A30 RMK A01 T02640008  RH  019%=      5-min Rain = 0
KBO1 141848Z 23012KT 26/00 A30 RMK A01 T02630004  RH  018%=      5-min Rain = 0
KBO1 141849Z 24013KT 26/01 A30 RMK A01 T02620007  RH  019%=      5-min Rain = 0
KBO1 141850Z 24009KT 26/01 A30 RMK A01 T02620005  RH  019%=      5-min Rain = 0
KBO1 141851Z 24012KT 26/01 A30 RMK A01 T02620011  RH  019%=      5-min Rain = 0
KBO1 141852Z 24012KT 26/01 A30 RMK A01 T02640010  RH  019%=      5-min Rain = 0
KBO1 141853Z 22014KT 26/01 A30 RMK A01 T02640011  RH  019%=      5-min Rain = 0
KBO1 141854Z 22006KT 26/01 A30 RMK A01 T02630009  RH  019%=      5-min Rain = 0
KBO1 141855Z 25007KT 26/02 A30 RMK A01 T02620016  RH  020%=      5-min Rain = 0
KBO1 141856Z 24010KT 26/02 A30 RMK A01 T02630016  RH  020%=      5-min Rain = 0
KBO1 141857Z 22011KT 27/02 A30 RMK A01 T02660017  RH  020%=      5-min Rain = 0
KBO1 141858Z 21017KT 27/01 A30 RMK A01 T02680014  RH  019%=      5-min Rain = 0
KBO1 141859Z 21018KT 27/00 A2999 RMK A01 T02700003  RH  018%=      5-min Rain = 0
KBO1 141900Z 21014KT 27/00 A30 RMK A01 T02680003  RH  018%=      5-min Rain = 0
KBO1 141901Z 22016KT 27/00 A30 RMK A01 T02660001  RH  018%=      5-min Rain = 0
KBO1 141902Z 23012KT 27/00 A30 RMK A01 T02680003  RH  018%=      5-min Rain = 0
KBO1 141903Z 23014G19KT 27/00 A2999 RMK A01 T02690004  RH  018%=      5-min Rain = 0
KBO1 141904Z 23020KT 27/M00 A2999 RMK A01 T02701004  RH  017%=      5-min Rain = 0
KBO1 141905Z 22016KT 27/M01 A2999 RMK A01 T02681007  RH  017%=      5-min Rain = 0
KBO1 141906Z 23017KT 27/M00 A2999 RMK A01 T02661004  RH  017%=      5-min Rain = 0
KBO1 141907Z 24016KT 27/M00 A2999 RMK A01 T02661002  RH  017%=      5-min Rain = 0
KBO1 141908Z 23013KT 27/M00 A2999 RMK A01 T02651001  RH  018%=      5-min Rain = 0
KBO1 141909Z 23012KT 26/00 A2999 RMK A01 T02640001  RH  018%=      5-min Rain = 0
KBO1 141910Z 23014KT 27/00 A2999 RMK A01 T026600-0  RH  017%=      5-min Rain = 0
KBO1 141911Z 23013G18KT 27/00 A2999 RMK A01 T02670001  RH  018%=      5-min Rain = 0
KBO1 141912Z 23010KT 27/M00 A2999 RMK A01 T02661003  RH  017%=      5-min Rain = 0
KBO1 141913Z 22013KT 27/00 A2999 RMK A01 T02650004  RH  018%=      5-min Rain = 0
KBO1 141914Z 22014KT 27/00 A2999 RMK A01 T02660001  RH  018%=      5-min Rain = 0
KBO1 141915Z 22011KT 27/00 A2999 RMK A01 T026700-0  RH  017%=      5-min Rain = 0
KBO1 141916Z 22009KT 27/00 A2999 RMK A01 T02670001  RH  018%=      5-min Rain = 0
KBO1 141917Z 23010KT 27/01 A2999 RMK A01 T02670007  RH  018%=      5-min Rain = 0
KBO1 141918Z 23010KT 27/01 A2999 RMK A01 T02670009  RH  019%=      5-min Rain = 0
KBO1 141919Z 22011G19KT 27/01 A2999 RMK A01 T02670006  RH  018%=      5-min Rain = 0
KBO1 141920Z 22012KT 27/01 A2999 RMK A01 T02660010  RH  019%=      5-min Rain = 0
KBO1 141921Z 21014KT 27/01 A2998 RMK A01 T02690010  RH  019%=      5-min Rain = 0
KBO1 141922Z 22012G17KT 27/01 A2998 RMK A01 T02690009  RH  018%=      5-min Rain = 0
KBO1 141923Z 22016KT 27/01 A2998 RMK A01 T02680008  RH  018%=      5-min Rain = 0
KBO1 141924Z 23012KT 27/01 A2998 RMK A01 T02670009  RH  019%=      5-min Rain = 0
KBO1 141925Z 25018KT 27/01 A2998 RMK A01 T02700010  RH  018%=      5-min Rain = 0
KBO1 141926Z 25019KT 27/00 A2998 RMK A01 T02720001  RH  017%=      5-min Rain = 0
KBO1 141927Z 25019KT 27/00 A2998 RMK A01 T027000-0  RH  017%=      5-min Rain = 0
KBO1 141928Z 25017G22KT 27/M00 A2998 RMK A01 T02681003  RH  017%=      5-min Rain = 0
KBO1 141929Z 25015KT 27/00 A2998 RMK A01 T02680002  RH  018%=      5-min Rain = 0
KBO1 141930Z 25014G21KT 27/M00 A2998 RMK A01 T02701001  RH  017%=      5-min Rain = 0
KBO1 141931Z 24014G19KT 27/M01 A2998 RMK A01 T02681006  RH  017%=      5-min Rain = 0
KBO1 141932Z 25015G20KT 27/M00 A2998 RMK A01 T02661004  RH  017%=      5-min Rain = 0
KBO1 141933Z 26014G19KT 27/M01 A2998 RMK A01 T02651009  RH  016%=      5-min Rain = 0
KBO1 141934Z 25015KT 27/M00 A2998 RMK A01 T02651004  RH  017%=      5-min Rain = 0
KBO1 141935Z 25016KT 27/M01 A2998 RMK A01 T02661006  RH  017%=      5-min Rain = 0
KBO1 141936Z 25013KT 27/M00 A2998 RMK A01 T02661004  RH  017%=      5-min Rain = 0
KBO1 141937Z 24012KT 27/M00 A2998 RMK A01 T02661002  RH  017%=      5-min Rain = 0
KBO1 141938Z 24013KT 27/M00 A2998 RMK A01 T02671003  RH  017%=      5-min Rain = 0
KBO1 141939Z 23010KT 27/M01 A2998 RMK A01 T02661007  RH  017%=      5-min Rain = 0
KBO1 141940Z 23012KT 27/M01 A2997 RMK A01 T02651005  RH  017%=      5-min Rain = 0
KBO1 141941Z 25013KT 27/M00 A2997 RMK A01 T02651002  RH  017%=      5-min Rain = 0
KBO1 141942Z 25014KT 27/M00 A2997 RMK A01 T02671001  RH  017%=      5-min Rain = 0
KBO1 141943Z 25020KT 27/00 A2997 RMK A01 T02700001  RH  017%=      5-min Rain = 0
KBO1 141944Z 25018KT 27/M01 A2997 RMK A01 T02701008  RH  016%=      5-min Rain = 0
KBO1 141945Z 25017KT 27/M01 A2997 RMK A01 T02681006  RH  017%=      5-min Rain = 0
KBO1 141946Z 24014KT 27/M00 A2997 RMK A01 T02671001  RH  017%=      5-min Rain = 0
KBO1 141947Z 25015KT 27/00 A2997 RMK A01 T02710003  RH  017%=      5-min Rain = 0
KBO1 141948Z 24013KT 27/M00 A2997 RMK A01 T02731004  RH  016%=      5-min Rain = 0
KBO1 141949Z 25015KT 27/00 A2997 RMK A01 T02720001  RH  017%=      5-min Rain = 0
KBO1 141950Z 25010KT 27/M01 A2997 RMK A01 T02711011  RH  016%=      5-min Rain = 0
KBO1 141951Z 24010KT 27/M00 A2997 RMK A01 T02671004  RH  017%=      5-min Rain = 0
KBO1 141952Z 24015KT 27/M00 A2996 RMK A01 T02691001  RH  017%=      5-min Rain = 0
KBO1 141953Z 25017KT 27/M01 A2997 RMK A01 T02721006  RH  016%=      5-min Rain = 0
KBO1 141954Z 25017KT 27/M01 A2996 RMK A01 T02711007  RH  016%=      5-min Rain = 0
KBO1 141955Z 25015KT 27/M01 A2997 RMK A01 T02691008  RH  016%=      5-min Rain = 0
KBO1 141956Z 25011KT 27/M01 A2997 RMK A01 T02691009  RH  016%=      5-min Rain = 0
KBO1 141957Z 24016KT 27/M01 A2996 RMK A01 T02681008  RH  016%=      5-min Rain = 0
KBO1 141958Z 25014KT 27/M01 A2997 RMK A01 T02681009  RH  016%=      5-min Rain = 0
KBO1 141959Z 24013KT 27/M01 A2997 RMK A01 T02691013  RH  016%=      5-min Rain = 0
KBO1 142000Z 24011G17KT 27/M01 A2997 RMK A01 T02681006  RH  017%=      5-min Rain = 0
KBO1 142001Z 24014KT 27/M01 A2997 RMK A01 T02711005  RH  016%=      5-min Rain = 0
KBO1 142002Z 25016KT 27/M01 A2996 RMK A01 T02721008  RH  016%=      5-min Rain = 0
KBO1 142003Z 25011KT 27/M01 A2997 RMK A01 T02691013  RH  016%=      5-min Rain = 0
KBO1 142004Z 26010KT 27/M01 A2996 RMK A01 T02671007  RH  016%=      5-min Rain = 0
KBO1 142005Z 26010KT 27/M01 A2996 RMK A01 T02681011  RH  016%=      5-min Rain = 0
KBO1 142006Z 25010KT 27/M01 A2996 RMK A01 T02691005  RH  017%=      5-min Rain = 0
KBO1 142007Z 24014G19KT 27/M01 A2996 RMK A01 T02701007  RH  016%=      5-min Rain = 0
KBO1 142008Z 25016KT 27/M00 A2996 RMK A01 T02711002  RH  017%=      5-min Rain = 0
KBO1 142009Z 25016KT 27/M01 A2996 RMK A01 T02721007  RH  016%=      5-min Rain = 0
KBO1 142010Z 24009G17KT 27/M01 A2996 RMK A01 T02701012  RH  016%=      5-min Rain = 0
KBO1 142011Z 25011KT 27/M01 A2996 RMK A01 T02661009  RH  016%=      5-min Rain = 0
KBO1 142012Z 25015KT 27/M01 A2996 RMK A01 T02661007  RH  017%=      5-min Rain = 0
KBO1 142013Z 25016KT 27/M01 A2996 RMK A01 T02681009  RH  016%=      5-min Rain = 0
KBO1 142014Z 24015KT 27/M01 A2996 RMK A01 T02691011  RH  016%=      5-min Rain = 0
KBO1 142015Z 24013KT 27/M01 A2996 RMK A01 T02691009  RH  016%=      5-min Rain = 0
KBO1 142016Z 25014KT 27/M01 A2996 RMK A01 T02701008  RH  016%=      5-min Rain = 0
KBO1 142017Z 23012KT 27/M01 A2996 RMK A01 T02711011  RH  016%=      5-min Rain = 0
KBO1 142018Z 23016G21KT 27/M01 A2996 RMK A01 T02731005  RH  016%=      5-min Rain = 0
KBO1 142019Z 24018KT 28/M01 A2996 RMK A01 T02751014  RH  015%=      5-min Rain = 0
KBO1 142020Z 25016KT 27/M02 A2996 RMK A01 T02741016  RH  015%=      5-min Rain = 0
KBO1 142021Z 25017KT 27/M01 A2996 RMK A01 T02721012  RH  016%=      5-min Rain = 0
KBO1 142022Z 22017KT 27/M02 A2996 RMK A01 T02721016  RH  015%=      5-min Rain = 0
KBO1 142023Z 22015KT 27/M01 A2996 RMK A01 T02701014  RH  015%=      5-min Rain = 0
KBO1 142024Z 23016KT 27/M01 A2996 RMK A01 T02711013  RH  016%=      5-min Rain = 0
KBO1 142025Z 22014KT 27/M01 A2996 RMK A01 T02721013  RH  015%=      5-min Rain = 0
KBO1 142026Z 24016KT 27/M01 A2996 RMK A01 T02721012  RH  016%=      5-min Rain = 0
KBO1 142027Z 24015KT 27/M02 A2996 RMK A01 T02731016  RH  015%=      5-min Rain = 0
KBO1 142028Z 23008KT 27/M02 A2996 RMK A01 T02701018  RH  015%=      5-min Rain = 0
KBO1 142029Z 24013G19KT 27/M01 A2996 RMK A01 T02681013  RH  016%=      5-min Rain = 0
KBO1 142030Z 25016KT 27/M01 A2996 RMK A01 T02701013  RH  016%=      5-min Rain = 0
KBO1 142031Z 24015G20KT 27/M01 A2996 RMK A01 T02701014  RH  016%=      5-min Rain = 0
KBO1 142032Z 24018KT 27/M01 A2995 RMK A01 T02691011  RH  016%=      5-min Rain = 0
KBO1 142033Z 25014KT 27/M01 A2996 RMK A01 T02681013  RH  016%=      5-min Rain = 0
KBO1 142034Z 24012KT 27/M01 A2996 RMK A01 T02671011  RH  016%=      5-min Rain = 0
KBO1 142035Z 22011KT 27/M01 A2995 RMK A01 T02671009  RH  016%=      5-min Rain = 0
KBO1 142036Z 24009KT 27/M00 A2995 RMK A01 T02701003  RH  017%=      5-min Rain = 0
KBO1 142037Z 23012KT 27/M01 A2995 RMK A01 T02721008  RH  016%=      5-min Rain = 0
KBO1 142038Z 26017KT 27/M01 A2995 RMK A01 T02711011  RH  016%=      5-min Rain = 0
KBO1 142039Z 25017KT 27/M02 A2995 RMK A01 T02711015  RH  015%=      5-min Rain = 0
KBO1 142040Z 24016KT 27/M02 A2995 RMK A01 T02711015  RH  015%=      5-min Rain = 0
KBO1 142041Z 25016KT 27/M01 A2995 RMK A01 T02701013  RH  016%=      5-min Rain = 0
KBO1 142042Z 25014KT 27/M01 A2995 RMK A01 T02701011  RH  016%=      5-min Rain = 0
KBO1 142043Z 22016KT 27/M01 A2995 RMK A01 T02711011  RH  016%=      5-min Rain = 0
KBO1 142044Z 22014KT 27/M01 A2995 RMK A01 T02701014  RH  015%=      5-min Rain = 0
KBO1 142045Z 23014G19KT 27/M01 A2995 RMK A01 T02691009  RH  016%=      5-min Rain = 0
KBO1 142046Z 23018KT 27/M01 A2995 RMK A01 T02711011  RH  016%=      5-min Rain = 0
KBO1 142047Z 23014KT 27/M01 A2995 RMK A01 T02711014  RH  015%=      5-min Rain = 0
KBO1 142048Z 22011KT 27/M01 A2995 RMK A01 T02701014  RH  015%=      5-min Rain = 0
KBO1 142049Z 22014KT 27/M02 A2995 RMK A01 T02691015  RH  015%=      5-min Rain = 0
KBO1 142050Z 24016KT 27/M01 A2995 RMK A01 T02701009  RH  016%=      5-min Rain = 0
KBO1 142051Z 24013KT 27/M01 A2995 RMK A01 T02721010  RH  016%=      5-min Rain = 0
KBO1 142052Z 24012KT 27/M01 A2995 RMK A01 T02701013  RH  016%=      5-min Rain = 0
KBO1 142053Z 25013G21KT 27/M01 A2995 RMK A01 T02691012  RH  016%=      5-min Rain = 0
KBO1 142054Z 22018KT 27/M01 A2995 RMK A01 T02701009  RH  016%=      5-min Rain = 0
KBO1 142055Z 23017KT 27/M01 A2995 RMK A01 T02721009  RH  016%=      5-min Rain = 0
KBO1 142056Z 24016KT 27/M02 A2995 RMK A01 T02721017  RH  015%=      5-min Rain = 0
KBO1 142057Z 24016KT 27/M02 A2995 RMK A01 T02711015  RH  015%=      5-min Rain = 0
KBO1 142058Z 25017G24KT 27/M01 A2995 RMK A01 T02711011  RH  016%=      5-min Rain = 0
KBO1 142059Z 25015KT 27/M02 A2996 RMK A01 T02711017  RH  015%=      5-min Rain = 0
KBO1 142100Z 24014KT 27/M02 A2995 RMK A01 T02701015  RH  015%=      5-min Rain = 0
KBO1 142101Z 24012KT 27/M02 A2995 RMK A01 T02701018  RH  015%=      5-min Rain = 0
KBO1 142102Z 25011KT 27/M02 A2995 RMK A01 T02681018  RH  015%=      5-min Rain = 0
KBO1 142103Z 24011KT 27/M02 A2995 RMK A01 T02661018  RH  015%=      5-min Rain = 0
KBO1 142104Z 24013G20KT 27/M01 A2995 RMK A01 T02661011  RH  016%=      5-min Rain = 0
KBO1 142105Z 22021KT 27/M01 A2995 RMK A01 T02691011  RH  016%=      5-min Rain = 0
KBO1 142106Z 21020KT 27/M02 A2995 RMK A01 T02701016  RH  015%=      5-min Rain = 0
KBO1 142107Z 22017KT 27/M01 A2995 RMK A01 T02701010  RH  016%=      5-min Rain = 0
KBO1 142108Z 23015KT 27/M02 A2996 RMK A01 T02711016  RH  015%=      5-min Rain = 0
KBO1 142109Z 23013KT 27/M02 A2995 RMK A01 T02701015  RH  015%=      5-min Rain = 0
KBO1 142110Z 21015KT 27/M01 A2995 RMK A01 T02701011  RH  016%=      5-min Rain = 0
KBO1 142111Z 22016KT 27/M01 A2995 RMK A01 T02721009  RH  016%=      5-min Rain = 0
KBO1 142112Z 22015KT 27/M01 A2995 RMK A01 T02721014  RH  015%=      5-min Rain = 0
KBO1 142113Z 21014KT 27/M01 A2995 RMK A01 T02701013  RH  016%=      5-min Rain = 0
KBO1 142114Z 22013KT 27/M01 A2995 RMK A01 T02701011  RH  016%=      5-min Rain = 0
KBO1 142115Z 22011KT 27/M01 A2995 RMK A01 T02691012  RH  016%=      5-min Rain = 0
KBO1 142116Z 24010KT 27/M01 A2995 RMK A01 T02691008  RH  016%=      5-min Rain = 0
KBO1 142117Z 23015KT 27/M01 A2995 RMK A01 T02691006  RH  016%=      5-min Rain = 0
KBO1 142118Z 25013KT 27/M01 A2996 RMK A01 T02711005  RH  016%=      5-min Rain = 0
KBO1 142119Z 25016KT 27/M00 A2995 RMK A01 T02741001  RH  017%=      5-min Rain = 0
KBO1 142120Z 24018KT 27/M01 A2995 RMK A01 T02741007  RH  016%=      5-min Rain = 0
KBO1 142121Z 23015KT 27/M01 A2996 RMK A01 T02721008  RH  016%=      5-min Rain = 0
KBO1 142122Z 23014KT 27/M01 A2996 RMK A01 T02701005  RH  017%=      5-min Rain = 0
KBO1 142123Z 21014KT 27/M01 A2996 RMK A01 T02711005  RH  016%=      5-min Rain = 0
KBO1 142124Z 21014G19KT 27/M01 A2995 RMK A01 T02711006  RH  016%=      5-min Rain = 0
KBO1 142125Z 24016KT 27/M00 A2995 RMK A01 T02711004  RH  017%=      5-min Rain = 0
KBO1 142126Z 22016G22KT 27/M01 A2995 RMK A01 T02721006  RH  016%=      5-min Rain = 0
KBO1 142127Z 23019KT 27/M01 A2995 RMK A01 T02721007  RH  016%=      5-min Rain = 0
KBO1 142128Z 24019G25KT 27/M01 A2995 RMK A01 T02711008  RH  016%=      5-min Rain = 0
KBO1 142129Z 23020KT 27/M01 A2995 RMK A01 T02711009  RH  016%=      5-min Rain = 0
KBO1 142130Z 23017KT 27/M01 A2996 RMK A01 T02701012  RH  016%=      5-min Rain = 0
KBO1 142131Z 24016KT 27/M01 A2996 RMK A01 T02691014  RH  016%=      5-min Rain = 0
KBO1 142132Z 24015KT 27/M01 A2996 RMK A01 T02671013  RH  016%=      5-min Rain = 0
KBO1 142133Z 24014KT 27/M02 A2995 RMK A01 T02671015  RH  016%=      5-min Rain = 0
KBO1 142134Z 24013KT 27/M01 A2995 RMK A01 T02661010  RH  016%=      5-min Rain = 0
KBO1 142135Z 23017KT 27/M01 A2995 RMK A01 T02671014  RH  016%=      5-min Rain = 0
KBO1 142136Z 22017KT 27/M01 A2995 RMK A01 T02681013  RH  016%=      5-min Rain = 0
KBO1 142137Z 22017KT 27/M02 A2995 RMK A01 T02681015  RH  016%=      5-min Rain = 0
KBO1 142138Z 23017KT 27/M01 A2995 RMK A01 T02681010  RH  016%=      5-min Rain = 0
KBO1 142139Z 23018KT 27/M01 A2995 RMK A01 T02691011  RH  016%=      5-min Rain = 0
KBO1 142140Z 24016KT 27/M02 A2995 RMK A01 T02681015  RH  016%=      5-min Rain = 0
KBO1 142141Z 23013KT 27/M01 A2995 RMK A01 T02661013  RH  016%=      5-min Rain = 0
KBO1 142142Z 22016KT 27/M01 A2995 RMK A01 T02671011  RH  016%=      5-min Rain = 0
KBO1 142143Z 23012KT 27/M01 A2995 RMK A01 T02661010  RH  016%=      5-min Rain = 0
KBO1 142144Z 22012KT 27/M01 A2995 RMK A01 T02671009  RH  016%=      5-min Rain = 0
KBO1 142145Z 22016KT 27/M01 A2995 RMK A01 T02681007  RH  016%=      5-min Rain = 0
KBO1 142146Z 22017G22KT 27/M01 A2995 RMK A01 T02691010  RH  016%=      5-min Rain = 0
KBO1 142147Z 22015KT 27/M01 A2995 RMK A01 T02681011  RH  016%=      5-min Rain = 0
KBO1 142148Z 21014KT 27/M01 A2995 RMK A01 T02671012  RH  016%=      5-min Rain = 0
KBO1 142149Z 22019KT 27/M01 A2995 RMK A01 T02671010  RH  016%=      5-min Rain = 0
KBO1 142150Z 22013KT 27/M01 A2995 RMK A01 T02671014  RH  016%=      5-min Rain = 0
KBO1 142151Z 23013KT 27/M01 A2995 RMK A01 T02661010  RH  016%=      5-min Rain = 0
KBO1 142152Z 21015KT 27/M01 A2995 RMK A01 T02661008  RH  017%=      5-min Rain = 0
KBO1 142153Z 22019KT 27/M01 A2995 RMK A01 T02671006  RH  017%=      5-min Rain = 0
KBO1 142154Z 22016KT 27/M01 A2995 RMK A01 T02681006  RH  017%=      5-min Rain = 0
KBO1 142155Z 22012KT 27/M00 A2995 RMK A01 T02681004  RH  017%=      5-min Rain = 0
KBO1 142156Z 23012KT 27/M01 A2995 RMK A01 T02681005  RH  017%=      5-min Rain = 0
KBO1 142157Z 23014KT 27/M00 A2995 RMK A01 T02671001  RH  017%=      5-min Rain = 0
KBO1 142158Z 22014KT 27/00 A2995 RMK A01 T02690000  RH  017%=      5-min Rain = 0
KBO1 142159Z 22013KT 27/M00 A2995 RMK A01 T02681004  RH  017%=      5-min Rain = 0
KBO1 142200Z 21012KT 27/00 A2995 RMK A01 T026700-0  RH  017%=      5-min Rain = 0
KBO1 142201Z 22015KT 27/M00 A2995 RMK A01 T02671001  RH  017%=      5-min Rain = 0
KBO1 142202Z 21013KT 27/M00 A2995 RMK A01 T02661004  RH  017%=      5-min Rain = 0
KBO1 142203Z 21013KT 27/M00 A2995 RMK A01 T02651003  RH  017%=      5-min Rain = 0
KBO1 142204Z 22011KT 27/M01 A2995 RMK A01 T02651005  RH  017%=      5-min Rain = 0
KBO1 142205Z 21010KT 26/M00 A2995 RMK A01 T02641004  RH  017%=      5-min Rain = 0
KBO1 142206Z 21015KT 26/00 A2995 RMK A01 T02640000  RH  018%=      5-min Rain = 0
KBO1 142207Z 21018KT 27/00 A2995 RMK A01 T02670002  RH  018%=      5-min Rain = 0
KBO1 142208Z 21014KT 27/M00 A2995 RMK A01 T02661002  RH  017%=      5-min Rain = 0
KBO1 142209Z 20014KT 27/00 A2995 RMK A01 T02650000  RH  018%=      5-min Rain = 0
KBO1 142210Z 22016KT 27/00 A2995 RMK A01 T02660003  RH  018%=      5-min Rain = 0
KBO1 142211Z 21015KT 27/00 A2995 RMK A01 T02670002  RH  018%=      5-min Rain = 0
KBO1 142212Z 20019KT 27/00 A2995 RMK A01 T026700-0  RH  017%=      5-min Rain = 0
KBO1 142213Z 20017KT 27/00 A2995 RMK A01 T026500-0  RH  018%=      5-min Rain = 0
KBO1 142214Z 20015KT 27/00 A2995 RMK A01 T026500-0  RH  018%=      5-min Rain = 0
KBO1 142215Z 20014KT 27/00 A2995 RMK A01 T02650002  RH  018%=      5-min Rain = 0
KBO1 142216Z 20014KT 27/00 A2995 RMK A01 T02650002  RH  018%=      5-min Rain = 0
KBO1 142217Z 22012KT 27/00 A2995 RMK A01 T02650004  RH  018%=      5-min Rain = 0
KBO1 142218Z 23012KT 27/01 A2995 RMK A01 T02660006  RH  018%=      5-min Rain = 0
KBO1 142219Z 23011KT 27/01 A2995 RMK A01 T02660006  RH  018%=      5-min Rain = 0
KBO1 142220Z 23010KT 27/01 A2995 RMK A01 T02660006  RH  018%=      5-min Rain = 0
KBO1 142221Z 23008KT 27/01 A2995 RMK A01 T02660011  RH  019%=      5-min Rain = 0
KBO1 142222Z 22007KT 27/01 A2995 RMK A01 T02660009  RH  019%=      5-min Rain = 0
KBO1 142223Z 25011KT 27/01 A2995 RMK A01 T02670012  RH  019%=      5-min Rain = 0
KBO1 142224Z 25014KT 27/01 A2995 RMK A01 T02690009  RH  018%=      5-min Rain = 0
KBO1 142225Z 26013KT 27/00 A2995 RMK A01 T026800-0  RH  017%=      5-min Rain = 0
KBO1 142226Z 26012KT 27/00 A2995 RMK A01 T02670000  RH  018%=      5-min Rain = 0
KBO1 142227Z 23016KT 27/01 A2995 RMK A01 T02660005  RH  018%=      5-min Rain = 0
KBO1 142228Z 24017KT 27/01 A2995 RMK A01 T02660005  RH  018%=      5-min Rain = 0
KBO1 142229Z 24018KT 27/00 A2995 RMK A01 T02660003  RH  018%=      5-min Rain = 0
KBO1 142230Z 25014KT 27/01 A2995 RMK A01 T02650005  RH  018%=      5-min Rain = 0
KBO1 142231Z 24015KT 27/01 A2995 RMK A01 T02650008  RH  019%=      5-min Rain = 0
KBO1 142232Z 24015KT 27/00 A2995 RMK A01 T02650004  RH  018%=      5-min Rain = 0
KBO1 142233Z 24014KT 26/00 A2995 RMK A01 T02640004  RH  018%=      5-min Rain = 0
KBO1 142234Z 23013KT 26/01 A2995 RMK A01 T02630005  RH  018%=      5-min Rain = 0
KBO1 142235Z 23012KT 26/01 A2995 RMK A01 T02630005  RH  018%=      5-min Rain = 0
KBO1 142236Z 24012KT 26/01 A2995 RMK A01 T02630007  RH  019%=      5-min Rain = 0
KBO1 142237Z 23013G18KT 26/01 A2995 RMK A01 T02640007  RH  019%=      5-min Rain = 0
KBO1 142238Z 23016KT 26/01 A2995 RMK A01 T02640006  RH  019%=      5-min Rain = 0
KBO1 142239Z 22017KT 26/01 A2995 RMK A01 T02640005  RH  018%=      5-min Rain = 0
KBO1 142240Z 22015KT 26/01 A2995 RMK A01 T02630005  RH  019%=      5-min Rain = 0
KBO1 142241Z 22015KT 26/01 A2995 RMK A01 T02630005  RH  019%=      5-min Rain = 0
KBO1 142242Z 22013KT 26/01 A2995 RMK A01 T02620009  RH  019%=      5-min Rain = 0
KBO1 142243Z 23014KT 26/01 A2995 RMK A01 T02630011  RH  019%=      5-min Rain = 0
KBO1 142244Z 24016KT 26/01 A2995 RMK A01 T02640006  RH  019%=      5-min Rain = 0
KBO1 142245Z 23016KT 26/01 A2995 RMK A01 T02630005  RH  019%=      5-min Rain = 0
KBO1 142246Z 23016KT 26/01 A2995 RMK A01 T02620007  RH  019%=      5-min Rain = 0
KBO1 142247Z 23014KT 26/01 A2995 RMK A01 T02620006  RH  019%=      5-min Rain = 0
KBO1 142248Z 23013KT 26/01 A2995 RMK A01 T02610006  RH  019%=      5-min Rain = 0
KBO1 142249Z 23012KT 26/01 A2995 RMK A01 T02610005  RH  019%=      5-min Rain = 0
KBO1 142250Z 21012KT 26/01 A2995 RMK A01 T02610006  RH  019%=      5-min Rain = 0
KBO1 142251Z 22014G19KT 26/01 A2995 RMK A01 T02610008  RH  019%=      5-min Rain = 0
KBO1 142252Z 22017KT 26/01 A2994 RMK A01 T02610009  RH  019%=      5-min Rain = 0
KBO1 142253Z 22017KT 26/01 A2994 RMK A01 T02610008  RH  019%=      5-min Rain = 0
KBO1 142254Z 23013KT 26/01 A2995 RMK A01 T02600008  RH  019%=      5-min Rain = 0
KBO1 142255Z 23014KT 26/01 A2995 RMK A01 T02600010  RH  019%=      5-min Rain = 0
KBO1 142256Z 23016KT 26/01 A2995 RMK A01 T02600012  RH  020%=      5-min Rain = 0
KBO1 142257Z 23016KT 26/01 A2994 RMK A01 T02600011  RH  020%=      5-min Rain = 0
KBO1 142258Z 22015KT 26/01 A2995 RMK A01 T02600012  RH  020%=      5-min Rain = 0
KBO1 142259Z 22014KT 26/01 A2995 RMK A01 T02600011  RH  020%=      5-min Rain = 0
KBO1 142300Z 23012KT 26/01 A2995 RMK A01 T02590011  RH  020%=      5-min Rain = 0
KBO1 142301Z 22012KT 26/01 A2995 RMK A01 T02590013  RH  020%=      5-min Rain = 0
KBO1 142302Z 22012KT 26/01 A2995 RMK A01 T02590013  RH  020%=      5-min Rain = 0
KBO1 142303Z 22012KT 26/01 A2995 RMK A01 T02590013  RH  020%=      5-min Rain = 0
KBO1 142304Z 22012KT 26/02 A2995 RMK A01 T02590016  RH  020%=      5-min Rain = 0
KBO1 142305Z 21015KT 26/01 A2994 RMK A01 T02580011  RH  020%=      5-min Rain = 0
KBO1 142306Z 22014KT 26/01 A2994 RMK A01 T02580011  RH  020%=      5-min Rain = 0
KBO1 142307Z 21012KT 26/01 A2994 RMK A01 T02580013  RH  020%=      5-min Rain = 0
KBO1 142308Z 22012KT 26/01 A2994 RMK A01 T02580013  RH  020%=      5-min Rain = 0
KBO1 142309Z 22012KT 26/02 A2995 RMK A01 T02570015  RH  021%=      5-min Rain = 0
KBO1 142310Z 22011KT 26/02 A2995 RMK A01 T02580016  RH  021%=      5-min Rain = 0
KBO1 142311Z 21010KT 26/02 A2995 RMK A01 T02570017  RH  021%=      5-min Rain = 0
KBO1 142312Z 21011KT 26/02 A2995 RMK A01 T02570016  RH  021%=      5-min Rain = 0
KBO1 142313Z 22010KT 26/02 A2995 RMK A01 T02570015  RH  021%=      5-min Rain = 0
KBO1 142314Z 22011KT 26/02 A2995 RMK A01 T02580017  RH  021%=      5-min Rain = 0
KBO1 142315Z 22011KT 26/02 A2995 RMK A01 T02570015  RH  021%=      5-min Rain = 0
KBO1 142316Z 22010KT 26/02 A2995 RMK A01 T02570016  RH  021%=      5-min Rain = 0
KBO1 142317Z 21008KT 26/02 A2995 RMK A01 T02560018  RH  021%=      5-min Rain = 0
KBO1 142318Z 21009KT 26/02 A2995 RMK A01 T02560022  RH  022%=      5-min Rain = 0
KBO1 142319Z 21012KT 26/02 A2995 RMK A01 T02550016  RH  021%=      5-min Rain = 0
KBO1 142320Z 21011KT 26/02 A2995 RMK A01 T02560016  RH  021%=      5-min Rain = 0
KBO1 142321Z 21010KT 26/02 A2995 RMK A01 T02550016  RH  021%=      5-min Rain = 0
KBO1 142322Z 21012KT 26/01 A2995 RMK A01 T02550014  RH  021%=      5-min Rain = 0
KBO1 142323Z 22012KT 25/02 A2995 RMK A01 T02540015  RH  021%=      5-min Rain = 0
KBO1 142324Z 21013KT 25/02 A2995 RMK A01 T02540016  RH  021%=      5-min Rain = 0
KBO1 142325Z 21011KT 25/02 A2995 RMK A01 T02530016  RH  021%=      5-min Rain = 0
KBO1 142326Z 21011KT 25/02 A2995 RMK A01 T02520018  RH  022%=      5-min Rain = 0
KBO1 142327Z 21011KT 25/02 A2995 RMK A01 T02520017  RH  022%=      5-min Rain = 0
KBO1 142328Z 21011KT 25/02 A2995 RMK A01 T02510017  RH  022%=      5-min Rain = 0
KBO1 142329Z 20010KT 25/02 A2995 RMK A01 T02510017  RH  022%=      5-min Rain = 0
KBO1 142330Z 20010KT 25/02 A2995 RMK A01 T02500016  RH  022%=      5-min Rain = 0
KBO1 142331Z 20011KT 25/02 A2995 RMK A01 T02500017  RH  022%=      5-min Rain = 0
KBO1 142332Z 20012KT 25/02 A2995 RMK A01 T02490016  RH  022%=      5-min Rain = 0
KBO1 142333Z 20011KT 25/02 A2995 RMK A01 T02490016  RH  022%=      5-min Rain = 0
KBO1 142334Z 20009KT 25/02 A2995 RMK A01 T02490018  RH  022%=      5-min Rain = 0
KBO1 142335Z 20009KT 25/02 A2995 RMK A01 T02480020  RH  023%=      5-min Rain = 0
KBO1 142336Z 20010KT 25/02 A2995 RMK A01 T02470020  RH  023%=      5-min Rain = 0
KBO1 142337Z 20009KT 25/02 A2995 RMK A01 T02460021  RH  023%=      5-min Rain = 0
KBO1 142338Z 20009KT 25/02 A2995 RMK A01 T02450021  RH  023%=      5-min Rain = 0
KBO1 142339Z 20009KT 25/02 A2995 RMK A01 T02450021  RH  023%=      5-min Rain = 0
KBO1 142340Z 20009KT 24/02 A2995 RMK A01 T02440022  RH  023%=      5-min Rain = 0
KBO1 142341Z 20010KT 24/02 A2995 RMK A01 T02430023  RH  024%=      5-min Rain = 0
KBO1 142342Z 20009KT 24/02 A2995 RMK A01 T02430023  RH  024%=      5-min Rain = 0
KBO1 142343Z 19009KT 24/03 A2995 RMK A01 T02420025  RH  024%=      5-min Rain = 0
KBO1 142344Z 19009KT 24/03 A2995 RMK A01 T02400025  RH  024%=      5-min Rain = 0
KBO1 142345Z 20009KT 24/03 A2995 RMK A01 T02400025  RH  025%=      5-min Rain = 0
KBO1 142346Z 19009KT 24/02 A2995 RMK A01 T02390024  RH  025%=      5-min Rain = 0
KBO1 142347Z 20009KT 24/02 A2995 RMK A01 T02380024  RH  025%=      5-min Rain = 0
KBO1 142348Z 19009KT 24/02 A2995 RMK A01 T02370023  RH  025%=      5-min Rain = 0
KBO1 142349Z 19008KT 24/02 A2995 RMK A01 T02360023  RH  025%=      5-min Rain = 0
KBO1 142350Z 19009KT 24/02 A2995 RMK A01 T02350024  RH  025%=      5-min Rain = 0
KBO1 142351Z 19009KT 23/02 A2995 RMK A01 T02340024  RH  025%=      5-min Rain = 0
KBO1 142352Z 19009KT 23/02 A2995 RMK A01 T02330023  RH  025%=      5-min Rain = 0
KBO1 142353Z 19009KT 23/02 A2995 RMK A01 T02330024  RH  025%=      5-min Rain = 0
KBO1 142354Z 19008KT 23/02 A2995 RMK A01 T02320024  RH  025%=      5-min Rain = 0
KBO1 142355Z 19008KT 23/02 A2995 RMK A01 T02310024  RH  026%=      5-min Rain = 0
KBO1 142356Z 19008KT 23/03 A2995 RMK A01 T02290025  RH  026%=      5-min Rain = 0
KBO1 142357Z 19008KT 23/03 A2995 RMK A01 T02280025  RH  026%=      5-min Rain = 0
KBO1 142358Z 19008KT 23/03 A2995 RMK A01 T02270025  RH  027%=      5-min Rain = 0
KBO1 142359Z 19008KT 23/03 A2995 RMK A01 T02250026  RH  027%=      5-min Rain = 0
KBO1 150000Z 19008KT 22/03 A2995 RMK A01 T02240026  RH  027%=      5-min Rain = 0
KBO1 150001Z 19007KT 22/03 A2995 RMK A01 T02220027  RH  028%=      5-min Rain = 0
KBO1 150002Z 19007KT 22/03 A2995 RMK A01 T02200028  RH  028%=      5-min Rain = 0
KBO1 150003Z 19007KT 22/03 A2995 RMK A01 T02180028  RH  029%=      5-min Rain = 0
KBO1 150004Z 19007KT 22/03 A2995 RMK A01 T02160029  RH  029%=      5-min Rain = 0
KBO1 150005Z 19007KT 21/03 A2995 RMK A01 T02140029  RH  030%=      5-min Rain = 0
KBO1 150006Z 19007KT 21/03 A2995 RMK A01 T02120030  RH  030%=      5-min Rain = 0
KBO1 150007Z 19007KT 21/03 A2995 RMK A01 T02100031  RH  031%=      5-min Rain = 0
KBO1 150008Z 19007KT 21/03 A2995 RMK A01 T02080030  RH  031%=      5-min Rain = 0
KBO1 150009Z 19008KT 21/03 A2995 RMK A01 T02060030  RH  031%=      5-min Rain = 0
KBO1 150010Z 19008KT 21/03 A2995 RMK A01 T02050030  RH  031%=      5-min Rain = 0
KBO1 150011Z 19007KT 20/03 A2995 RMK A01 T02030030  RH  032%=      5-min Rain = 0
KBO1 150012Z 19008KT 20/03 A2995 RMK A01 T02010030  RH  032%=      5-min Rain = 0
KBO1 150013Z 19008KT 20/03 A2995 RMK A01 T01990030  RH  033%=      5-min Rain = 0
KBO1 150014Z 19008KT 20/03 A2995 RMK A01 T01980030  RH  033%=      5-min Rain = 0
KBO1 150015Z 19008KT 20/03 A2995 RMK A01 T01980030  RH  033%=      5-min Rain = 0
KBO1 150016Z 19008KT 20/03 A2995 RMK A01 T01970031  RH  033%=      5-min Rain = 0
KBO1 150017Z 19008KT 20/03 A2995 RMK A01 T01960031  RH  034%=      5-min Rain = 0
KBO1 150018Z 19008KT 20/03 A2995 RMK A01 T01950032  RH  034%=      5-min Rain = 0
KBO1 150019Z 19009KT 19/03 A2995 RMK A01 T01930032  RH  034%=      5-min Rain = 0
KBO1 150020Z 19008KT 19/03 A2995 RMK A01 T01920031  RH  034%=      5-min Rain = 0
KBO1 150021Z 19008KT 19/03 A2995 RMK A01 T01910032  RH  035%=      5-min Rain = 0
KBO1 150022Z 19008KT 19/03 A2995 RMK A01 T01890033  RH  035%=      5-min Rain = 0
KBO1 150023Z 19008KT 19/03 A2995 RMK A01 T01870033  RH  036%=      5-min Rain = 0
KBO1 150024Z 19008KT 19/03 A2995 RMK A01 T01860032  RH  036%=      5-min Rain = 0
KBO1 150025Z 19008KT 19/03 A2995 RMK A01 T01860032  RH  036%=      5-min Rain = 0
KBO1 150026Z 19008KT 19/03 A2995 RMK A01 T01850032  RH  036%=      5-min Rain = 0
KBO1 150027Z 19008KT 18/03 A2995 RMK A01 T01840033  RH  037%=      5-min Rain = 0
KBO1 150028Z 19008KT 18/03 A2995 RMK A01 T01820033  RH  037%=      5-min Rain = 0
KBO1 150029Z 19008KT 18/03 A2995 RMK A01 T01810033  RH  037%=      5-min Rain = 0
KBO1 150030Z 20009KT 18/03 A2995 RMK A01 T01800034  RH  038%=      5-min Rain = 0
KBO1 150031Z 20009KT 18/03 A2995 RMK A01 T01780034  RH  038%=      5-min Rain = 0
KBO1 150032Z 20008KT 18/03 A2995 RMK A01 T01770034  RH  039%=      5-min Rain = 0
KBO1 150033Z 20009KT 18/03 A2995 RMK A01 T01760034  RH  039%=      5-min Rain = 0
KBO1 150034Z 20010KT 17/03 A2995 RMK A01 T01740034  RH  039%=      5-min Rain = 0
KBO1 150035Z 19010KT 17/03 A2996 RMK A01 T01730034  RH  040%=      5-min Rain = 0
KBO1 150036Z 19010KT 17/04 A2996 RMK A01 T01720035  RH  040%=      5-min Rain = 0
KBO1 150037Z 20009KT 17/04 A2996 RMK A01 T01700035  RH  041%=      5-min Rain = 0
KBO1 150038Z 20008KT 17/04 A2996 RMK A01 T01690036  RH  041%=      5-min Rain = 0
KBO1 150039Z 20007KT 17/04 A2996 RMK A01 T01670036  RH  041%=      5-min Rain = 0
KBO1 150040Z 20006KT 17/04 A2996 RMK A01 T01660036  RH  042%=      5-min Rain = 0
KBO1 150041Z 20007KT 16/04 A2996 RMK A01 T01640035  RH  042%=      5-min Rain = 0
KBO1 150042Z 20008KT 16/04 A2996 RMK A01 T01640035  RH  042%=      5-min Rain = 0
KBO1 150043Z 20007KT 16/04 A2996 RMK A01 T01640035  RH  042%=      5-min Rain = 0
KBO1 150044Z 20007KT 16/04 A2996 RMK A01 T01640035  RH  042%=      5-min Rain = 0
KBO1 150045Z 20007KT 16/04 A2996 RMK A01 T01640035  RH  042%=      5-min Rain = 0
KBO1 150046Z 20006KT 16/04 A2996 RMK A01 T01640035  RH  042%=      5-min Rain = 0
KBO1 150047Z 19008KT 16/03 A2996 RMK A01 T01640034  RH  042%=      5-min Rain = 0
KBO1 150048Z 19008KT 16/03 A2996 RMK A01 T01640034  RH  042%=      5-min Rain = 0
KBO1 150049Z 19008KT 16/04 A2996 RMK A01 T01640035  RH  042%=      5-min Rain = 0
KBO1 150050Z 19008KT 16/04 A2996 RMK A01 T01630036  RH  043%=      5-min Rain = 0
KBO1 150051Z 19008KT 16/04 A2996 RMK A01 T01620035  RH  043%=      5-min Rain = 0
KBO1 150052Z 19008KT 16/04 A2996 RMK A01 T01640035  RH  042%=      5-min Rain = 0
KBO1 150053Z 19008KT 17/04 A2996 RMK A01 T01660036  RH  042%=      5-min Rain = 0
KBO1 150054Z 19007KT 17/04 A2996 RMK A01 T01670037  RH  042%=      5-min Rain = 0
KBO1 150055Z 19009KT 17/04 A2996 RMK A01 T01660037  RH  042%=      5-min Rain = 0
KBO1 150056Z 19008KT 17/04 A2996 RMK A01 T01650037  RH  042%=      5-min Rain = 0
KBO1 150057Z 20008KT 16/04 A2996 RMK A01 T01640037  RH  043%=      5-min Rain = 0
KBO1 150058Z 20008KT 16/04 A2996 RMK A01 T01630037  RH  043%=      5-min Rain = 0
KBO1 150059Z 20008KT 16/04 A2996 RMK A01 T01610037  RH  043%=      5-min Rain = 0
KBO1 150100Z 20008KT 16/04 A2996 RMK A01 T01600036  RH  044%=      5-min Rain = 0
KBO1 150101Z 20008KT 16/04 A2996 RMK A01 T01600037  RH  044%=      5-min Rain = 0
KBO1 150102Z 20007KT 16/04 A2996 RMK A01 T01590037  RH  044%=      5-min Rain = 0
KBO1 150103Z 20008KT 16/04 A2996 RMK A01 T01580037  RH  044%=      5-min Rain = 0
KBO1 150104Z 20008KT 16/04 A2996 RMK A01 T01570037  RH  045%=      5-min Rain = 0
KBO1 150105Z 20008KT 16/04 A2996 RMK A01 T01560037  RH  045%=      5-min Rain = 0
KBO1 150106Z 20008KT 15/04 A2996 RMK A01 T01540037  RH  045%=      5-min Rain = 0
KBO1 150107Z 20008KT 15/04 A2996 RMK A01 T01530037  RH  046%=      5-min Rain = 0
KBO1 150108Z 20007KT 15/04 A2996 RMK A01 T01530038  RH  046%=      5-min Rain = 0
KBO1 150109Z 20007KT 15/04 A2996 RMK A01 T01510038  RH  047%=      5-min Rain = 0
KBO1 150110Z 19007KT 15/04 A2996 RMK A01 T01490038  RH  047%=      5-min Rain = 0
KBO1 150111Z 19008KT 15/04 A2996 RMK A01 T01490038  RH  047%=      5-min Rain = 0
KBO1 150112Z 20008KT 15/04 A2996 RMK A01 T01490038  RH  047%=      5-min Rain = 0
KBO1 150113Z 20008KT 15/04 A2996 RMK A01 T01490038  RH  047%=      5-min Rain = 0
KBO1 150114Z 20008KT 15/04 A2996 RMK A01 T01490039  RH  048%=      5-min Rain = 0
KBO1 150115Z 20008KT 15/04 A2996 RMK A01 T01490039  RH  048%=      5-min Rain = 0
KBO1 150116Z 20008KT 15/04 A2997 RMK A01 T01490039  RH  048%=      5-min Rain = 0
KBO1 150117Z 20009KT 15/04 A2997 RMK A01 T01480039  RH  048%=      5-min Rain = 0
KBO1 150118Z 20009KT 15/04 A2997 RMK A01 T01470040  RH  048%=      5-min Rain = 0
KBO1 150119Z 20009KT 15/04 A2997 RMK A01 T01470040  RH  049%=      5-min Rain = 0
KBO1 150120Z 20009KT 15/04 A2997 RMK A01 T01460040  RH  049%=      5-min Rain = 0
KBO1 150121Z 20009KT 15/04 A2997 RMK A01 T01450040  RH  049%=      5-min Rain = 0
KBO1 150122Z 21009KT 14/04 A2997 RMK A01 T01440041  RH  050%=      5-min Rain = 0
KBO1 150123Z 21008KT 14/04 A2997 RMK A01 T01430042  RH  051%=      5-min Rain = 0
KBO1 150124Z 21008KT 14/04 A2997 RMK A01 T01420042  RH  051%=      5-min Rain = 0
KBO1 150125Z 21009KT 14/04 A2997 RMK A01 T01410042  RH  051%=      5-min Rain = 0
KBO1 150126Z 20008KT 14/04 A2997 RMK A01 T01410042  RH  051%=      5-min Rain = 0
KBO1 150127Z 21008KT 14/04 A2997 RMK A01 T01400043  RH  052%=      5-min Rain = 0
KBO1 150128Z 21008KT 14/04 A2997 RMK A01 T01400043  RH  052%=      5-min Rain = 0
KBO1 150129Z 21008KT 14/04 A2997 RMK A01 T01400043  RH  052%=      5-min Rain = 0
KBO1 150130Z 21008KT 14/04 A2997 RMK A01 T01400043  RH  052%=      5-min Rain = 0
KBO1 150131Z 22009KT 14/04 A2997 RMK A01 T01390043  RH  052%=      5-min Rain = 0
KBO1 150132Z 22008KT 14/04 A2997 RMK A01 T01380043  RH  053%=      5-min Rain = 0
KBO1 150133Z 22009KT 14/04 A2997 RMK A01 T01360043  RH  053%=      5-min Rain = 0
KBO1 150134Z 22009KT 14/04 A2997 RMK A01 T01350043  RH  054%=      5-min Rain = 0
KBO1 150135Z 22009KT 13/04 A2997 RMK A01 T01340043  RH  054%=      5-min Rain = 0
KBO1 150136Z 22008KT 13/04 A2997 RMK A01 T01340043  RH  054%=      5-min Rain = 0
KBO1 150137Z 22009KT 13/04 A2997 RMK A01 T01340043  RH  054%=      5-min Rain = 0
KBO1 150138Z 22009KT 13/04 A2997 RMK A01 T01340042  RH  054%=      5-min Rain = 0
KBO1 150139Z 22009KT 14/04 A2997 RMK A01 T01350042  RH  053%=      5-min Rain = 0
KBO1 150140Z 22009KT 14/04 A2997 RMK A01 T01360042  RH  053%=      5-min Rain = 0
KBO1 150141Z 22009KT 14/04 A2997 RMK A01 T01370042  RH  053%=      5-min Rain = 0
KBO1 150142Z 22009KT 14/04 A2997 RMK A01 T01380042  RH  052%=      5-min Rain = 0
KBO1 150143Z 22009KT 14/04 A2997 RMK A01 T01380042  RH  052%=      5-min Rain = 0
KBO1 150144Z 22009KT 14/04 A2997 RMK A01 T01370042  RH  052%=      5-min Rain = 0
KBO1 150145Z 22010KT 14/04 A2997 RMK A01 T01380042  RH  052%=      5-min Rain = 0
KBO1 150146Z 22010KT 14/04 A2997 RMK A01 T01380042  RH  052%=      5-min Rain = 0
KBO1 150147Z 22009KT 14/04 A2997 RMK A01 T01380042  RH  052%=      5-min Rain = 0
KBO1 150148Z 22009KT 14/04 A2998 RMK A01 T01380042  RH  052%=      5-min Rain = 0
KBO1 150149Z 22010KT 14/04 A2998 RMK A01 T01390042  RH  052%=      5-min Rain = 0
KBO1 150150Z 22009KT 14/04 A2998 RMK A01 T01380042  RH  052%=      5-min Rain = 0
KBO1 150151Z 22009KT 14/04 A2998 RMK A01 T01380042  RH  052%=      5-min Rain = 0
KBO1 150152Z 22009KT 14/04 A2998 RMK A01 T01380042  RH  052%=      5-min Rain = 0
KBO1 150153Z 22009KT 14/04 A2998 RMK A01 T01380042  RH  052%=      5-min Rain = 0
KBO1 150154Z 22009KT 14/04 A2998 RMK A01 T01380043  RH  053%=      5-min Rain = 0
KBO1 150155Z 22010KT 14/04 A2998 RMK A01 T01370042  RH  052%=      5-min Rain = 0
KBO1 150156Z 22009KT 14/04 A2998 RMK A01 T01380041  RH  052%=      5-min Rain = 0
KBO1 150157Z 22009KT 14/04 A2998 RMK A01 T01380042  RH  052%=      5-min Rain = 0
KBO1 150158Z 22009KT 14/04 A2998 RMK A01 T01380042  RH  052%=      5-min Rain = 0
KBO1 150159Z 22009KT 14/04 A2998 RMK A01 T01390042  RH  052%=      5-min Rain = 0
KBO1 150200Z 22010KT 14/04 A2998 RMK A01 T01400043  RH  052%=      5-min Rain = 0
KBO1 150201Z 22010KT 14/04 A2998 RMK A01 T01400042  RH  052%=      5-min Rain = 0
KBO1 150202Z 22010KT 14/04 A2998 RMK A01 T01410043  RH  052%=      5-min Rain = 0
KBO1 150203Z 22010KT 14/04 A2998 RMK A01 T01410044  RH  052%=      5-min Rain = 0
KBO1 150204Z 22010KT 14/05 A2998 RMK A01 T01410045  RH  053%=      5-min Rain = 0
KBO1 150205Z 22011KT 14/05 A2998 RMK A01 T01410046  RH  053%=      5-min Rain = 0
KBO1 150206Z 22011KT 14/05 A2998 RMK A01 T01410046  RH  053%=      5-min Rain = 0
KBO1 150207Z 22011KT 14/05 A2998 RMK A01 T01410046  RH  053%=      5-min Rain = 0
KBO1 150208Z 22011KT 14/05 A2998 RMK A01 T01420046  RH  053%=      5-min Rain = 0
KBO1 150209Z 22011KT 14/05 A2998 RMK A01 T01420046  RH  052%=      5-min Rain = 0
KBO1 150210Z 22012KT 14/05 A2998 RMK A01 T01430046  RH  052%=      5-min Rain = 0
KBO1 150211Z 22012KT 14/05 A2998 RMK A01 T01430045  RH  052%=      5-min Rain = 0
KBO1 150212Z 22012KT 14/05 A2998 RMK A01 T01440045  RH  051%=      5-min Rain = 0
KBO1 150213Z 22012KT 15/04 A2999 RMK A01 T01450044  RH  051%=      5-min Rain = 0
KBO1 150214Z 22011KT 15/04 A2999 RMK A01 T01450044  RH  051%=      5-min Rain = 0
KBO1 150215Z 22012KT 15/04 A2999 RMK A01 T01450044  RH  050%=      5-min Rain = 0
KBO1 150216Z 22011KT 15/04 A2999 RMK A01 T01450043  RH  050%=      5-min Rain = 0
KBO1 150217Z 22012KT 15/04 A2999 RMK A01 T01450042  RH  050%=      5-min Rain = 0
KBO1 150218Z 22011KT 14/04 A2999 RMK A01 T01440042  RH  050%=      5-min Rain = 0
KBO1 150219Z 22011KT 14/04 A2999 RMK A01 T01440042  RH  050%=      5-min Rain = 0
KBO1 150220Z 22011KT 14/04 A2999 RMK A01 T01440042  RH  051%=      5-min Rain = 0
KBO1 150221Z 22011KT 14/04 A2999 RMK A01 T01430042  RH  051%=      5-min Rain = 0
KBO1 150222Z 22011KT 14/04 A2999 RMK A01 T01430042  RH  051%=      5-min Rain = 0
KBO1 150223Z 22011KT 14/04 A2999 RMK A01 T01430042  RH  051%=      5-min Rain = 0
KBO1 150224Z 22011KT 14/04 A2999 RMK A01 T01430043  RH  051%=      5-min Rain = 0
KBO1 150225Z 22011KT 14/04 A2999 RMK A01 T01430043  RH  051%=      5-min Rain = 0
KBO1 150226Z 22011KT 14/04 A2999 RMK A01 T01430043  RH  051%=      5-min Rain = 0
KBO1 150227Z 22012KT 14/04 A2999 RMK A01 T01430042  RH  051%=      5-min Rain = 0
KBO1 150228Z 22012KT 15/04 A2999 RMK A01 T01450042  RH  050%=      5-min Rain = 0
KBO1 150229Z 22013KT 15/04 A2999 RMK A01 T01470043  RH  050%=      5-min Rain = 0
KBO1 150230Z 22012KT 15/04 A2999 RMK A01 T01490043  RH  049%=      5-min Rain = 0
KBO1 150231Z 22012KT 15/04 A2999 RMK A01 T01510043  RH  048%=      5-min Rain = 0
KBO1 150232Z 22012KT 15/04 A2999 RMK A01 T01530043  RH  048%=      5-min Rain = 0
KBO1 150233Z 22012KT 15/04 A2999 RMK A01 T01540043  RH  048%=      5-min Rain = 0
KBO1 150234Z 22012KT 16/04 A2999 RMK A01 T01560043  RH  047%=      5-min Rain = 0
KBO1 150235Z 22012KT 16/04 A2999 RMK A01 T01580043  RH  046%=      5-min Rain = 0
KBO1 150236Z 22012KT 16/04 A2999 RMK A01 T01590044  RH  046%=      5-min Rain = 0
KBO1 150237Z 22012KT 16/04 A2999 RMK A01 T01600044  RH  046%=      5-min Rain = 0
KBO1 150238Z 22012KT 16/04 A2999 RMK A01 T01600044  RH  046%=      5-min Rain = 0
KBO1 150239Z 22012KT 16/04 A2999 RMK A01 T01600044  RH  046%=      5-min Rain = 0
KBO1 150240Z 22011KT 16/04 A2999 RMK A01 T01600044  RH  046%=      5-min Rain = 0
KBO1 150241Z 22011KT 16/05 A2999 RMK A01 T01590045  RH  046%=      5-min Rain = 0
KBO1 150242Z 22011KT 16/05 A2999 RMK A01 T01580045  RH  047%=      5-min Rain = 0
KBO1 150243Z 22011KT 16/05 A30 RMK A01 T01580045  RH  047%=      5-min Rain = 0
KBO1 150244Z 22011KT 16/05 A30 RMK A01 T01570045  RH  047%=      5-min Rain = 0
KBO1 150245Z 22011KT 16/05 A30 RMK A01 T01560046  RH  048%=      5-min Rain = 0
KBO1 150246Z 22012KT 16/05 A30 RMK A01 T01560047  RH  048%=      5-min Rain = 0
KBO1 150247Z 22012KT 16/05 A30 RMK A01 T01560047  RH  048%=      5-min Rain = 0
KBO1 150248Z 23012KT 16/05 A30 RMK A01 T01570047  RH  048%=      5-min Rain = 0
KBO1 150249Z 23011KT 16/05 A30 RMK A01 T01580048  RH  048%=      5-min Rain = 0
KBO1 150250Z 22012KT 16/05 A30 RMK A01 T01580048  RH  048%=      5-min Rain = 0
KBO1 150251Z 23012KT 16/05 A2999 RMK A01 T01580048  RH  048%=      5-min Rain = 0
KBO1 150252Z 22011KT 16/05 A2999 RMK A01 T01590048  RH  048%=      5-min Rain = 0
KBO1 150253Z 22011KT 16/05 A2999 RMK A01 T01590049  RH  048%=      5-min Rain = 0
KBO1 150254Z 22011KT 16/05 A2999 RMK A01 T01590049  RH  048%=      5-min Rain = 0
KBO1 150255Z 22011KT 16/05 A2999 RMK A01 T01590049  RH  048%=      5-min Rain = 0
KBO1 150256Z 22011KT 16/05 A30 RMK A01 T01590049  RH  048%=      5-min Rain = 0
KBO1 150257Z 22012KT 16/05 A30 RMK A01 T01580049  RH  048%=      5-min Rain = 0
KBO1 150258Z 22011KT 16/05 A30 RMK A01 T01580049  RH  048%=      5-min Rain = 0
KBO1 150259Z 22011KT 16/05 A30 RMK A01 T01580050  RH  048%=      5-min Rain = 0
KBO1 150300Z 22011KT 16/05 A30 RMK A01 T01580050  RH  049%=      5-min Rain = 0
KBO1 150301Z 23011KT 16/05 A30 RMK A01 T01580050  RH  049%=      5-min Rain = 0
KBO1 150302Z 22011KT 16/05 A30 RMK A01 T01580050  RH  049%=      5-min Rain = 0
KBO1 150303Z 23011KT 16/05 A30 RMK A01 T01580050  RH  049%=      5-min Rain = 0
KBO1 150304Z 23011KT 16/05 A30 RMK A01 T01590050  RH  048%=      5-min Rain = 0
KBO1 150305Z 23011KT 16/05 A30 RMK A01 T01600050  RH  048%=      5-min Rain = 0
KBO1 150306Z 23011KT 16/05 A30 RMK A01 T01600050  RH  048%=      5-min Rain = 0
KBO1 150307Z 23011KT 16/05 A30 RMK A01 T01600050  RH  048%=      5-min Rain = 0
KBO1 150308Z 23011KT 16/05 A30 RMK A01 T01600050  RH  048%=      5-min Rain = 0
KBO1 150309Z 23011KT 16/05 A30 RMK A01 T01600051  RH  048%=      5-min Rain = 0
KBO1 150310Z 22011KT 16/05 A30 RMK A01 T01600050  RH  048%=      5-min Rain = 0
KBO1 150311Z 23010KT 16/05 A30 RMK A01 T01600051  RH  048%=      5-min Rain = 0
KBO1 150312Z 22011KT 16/05 A30 RMK A01 T01600051  RH  048%=      5-min Rain = 0
KBO1 150313Z 23011KT 16/05 A30 RMK A01 T01600051  RH  048%=      5-min Rain = 0
KBO1 150314Z 23010KT 16/05 A30 RMK A01 T01600050  RH  048%=      5-min Rain = 0
KBO1 150315Z 23011KT 16/05 A30 RMK A01 T01610050  RH  048%=      5-min Rain = 0
KBO1 150316Z 23011KT 16/05 A30 RMK A01 T01610050  RH  048%=      5-min Rain = 0
KBO1 150317Z 22011KT 16/05 A30 RMK A01 T01620050  RH  047%=      5-min Rain = 0
KBO1 150318Z 22011KT 16/05 A30 RMK A01 T01620050  RH  047%=      5-min Rain = 0
KBO1 150319Z 22011KT 16/05 A30 RMK A01 T01620050  RH  047%=      5-min Rain = 0
KBO1 150320Z 22011KT 16/05 A30 RMK A01 T01620050  RH  047%=      5-min Rain = 0
KBO1 150321Z 23011KT 16/05 A30 RMK A01 T01620050  RH  047%=      5-min Rain = 0
KBO1 150322Z 23011KT 16/05 A30 RMK A01 T01610050  RH  048%=      5-min Rain = 0
KBO1 150323Z 23011KT 16/05 A30 RMK A01 T01590050  RH  048%=      5-min Rain = 0
KBO1 150324Z 23010KT 16/05 A30 RMK A01 T01570050  RH  049%=      5-min Rain = 0
KBO1 150325Z 23011KT 16/05 A30 RMK A01 T01550050  RH  050%=      5-min Rain = 0
KBO1 150326Z 23011KT 15/05 A30 RMK A01 T01540050  RH  050%=      5-min Rain = 0
KBO1 150327Z 23010KT 15/05 A30 RMK A01 T01520050  RH  050%=      5-min Rain = 0
KBO1 150328Z 23011KT 15/05 A30 RMK A01 T01510050  RH  051%=      5-min Rain = 0
KBO1 150329Z 23011KT 15/05 A30 RMK A01 T01510051  RH  051%=      5-min Rain = 0
KBO1 150330Z 23011KT 15/05 A30 RMK A01 T01500051  RH  051%=      5-min Rain = 0
KBO1 150331Z 23011KT 15/05 A30 RMK A01 T01500051  RH  052%=      5-min Rain = 0
KBO1 150332Z 23011KT 15/05 A30 RMK A01 T01490051  RH  052%=      5-min Rain = 0
KBO1 150333Z 23011KT 15/05 A30 RMK A01 T01490051  RH  052%=      5-min Rain = 0
KBO1 150334Z 23011KT 15/05 A30 RMK A01 T01490052  RH  052%=      5-min Rain = 0
KBO1 150335Z 23011KT 15/05 A30 RMK A01 T01480052  RH  052%=      5-min Rain = 0
KBO1 150336Z 23011KT 15/05 A30 RMK A01 T01470052  RH  053%=      5-min Rain = 0
KBO1 150337Z 23011KT 15/05 A30 RMK A01 T01470052  RH  053%=      5-min Rain = 0
KBO1 150338Z 23011KT 15/05 A30 RMK A01 T01460052  RH  053%=      5-min Rain = 0
KBO1 150339Z 23011KT 15/05 A30 RMK A01 T01460053  RH  053%=      5-min Rain = 0
KBO1 150340Z 23011KT 15/05 A30 RMK A01 T01460053  RH  054%=      5-min Rain = 0
KBO1 150341Z 23012KT 15/05 A30 RMK A01 T01450053  RH  054%=      5-min Rain = 0
KBO1 150342Z 23012KT 15/05 A30 RMK A01 T01460053  RH  054%=      5-min Rain = 0
KBO1 150343Z 23011KT 15/05 A30 RMK A01 T01470053  RH  053%=      5-min Rain = 0
KBO1 150344Z 23011KT 15/05 A30 RMK A01 T01480053  RH  053%=      5-min Rain = 0
KBO1 150345Z 23011KT 15/05 A30 RMK A01 T01470054  RH  053%=      5-min Rain = 0
KBO1 150346Z 23011KT 15/05 A30 RMK A01 T01460054  RH  054%=      5-min Rain = 0
KBO1 150347Z 22011KT 14/05 A30 RMK A01 T01440054  RH  054%=      5-min Rain = 0
KBO1 150348Z 23012KT 14/05 A30 RMK A01 T01430054  RH  055%=      5-min Rain = 0
KBO1 150349Z 22012KT 14/05 A30 RMK A01 T01420053  RH  055%=      5-min Rain = 0
KBO1 150350Z 22012KT 14/05 A30 RMK A01 T01420054  RH  055%=      5-min Rain = 0
KBO1 150351Z 22012KT 14/05 A30 RMK A01 T01410053  RH  055%=      5-min Rain = 0
KBO1 150352Z 22012KT 14/05 A30 RMK A01 T01410053  RH  056%=      5-min Rain = 0
KBO1 150353Z 22012KT 14/05 A30 RMK A01 T01400053  RH  056%=      5-min Rain = 0
KBO1 150354Z 23012KT 14/05 A30 RMK A01 T01400054  RH  056%=      5-min Rain = 0
KBO1 150355Z 23012KT 14/05 A30 RMK A01 T01400054  RH  056%=      5-min Rain = 0
KBO1 150356Z 23012KT 14/05 A30 RMK A01 T01410054  RH  056%=      5-min Rain = 0
KBO1 150357Z 23011KT 14/05 A30 RMK A01 T01410053  RH  056%=      5-min Rain = 0
KBO1 150358Z 23011KT 14/05 A30 RMK A01 T01410053  RH  055%=      5-min Rain = 0
KBO1 150359Z 23011KT 14/05 A30 RMK A01 T01420054  RH  055%=      5-min Rain = 0
KBO1 150400Z 23011KT 14/05 A30 RMK A01 T01420054  RH  055%=      5-min Rain = 0
KBO1 150401Z 23011KT 14/05 A30 RMK A01 T01420053  RH  055%=      5-min Rain = 0
KBO1 150402Z 23011KT 14/05 A30 RMK A01 T01430054  RH  055%=      5-min Rain = 0
KBO1 150403Z 23011KT 14/05 A30 RMK A01 T01430053  RH  055%=      5-min Rain = 0
KBO1 150404Z 23011KT 14/05 A30 RMK A01 T01440054  RH  055%=      5-min Rain = 0
KBO1 150405Z 23011KT 14/05 A30 RMK A01 T01440054  RH  055%=      5-min Rain = 0
KBO1 150406Z 23011KT 14/05 A30 RMK A01 T01430054  RH  055%=      5-min Rain = 0
KBO1 150407Z 23012KT 14/05 A30 RMK A01 T01410054  RH  056%=      5-min Rain = 0
KBO1 150408Z 23012KT 14/05 A30 RMK A01 T01410054  RH  056%=      5-min Rain = 0
KBO1 150409Z 23013KT 14/05 A30 RMK A01 T01400054  RH  056%=      5-min Rain = 0
KBO1 150410Z 23013KT 14/06 A30 RMK A01 T01410055  RH  056%=      5-min Rain = 0
KBO1 150411Z 23013KT 14/06 A30 RMK A01 T01420055  RH  056%=      5-min Rain = 0
KBO1 150412Z 23013KT 14/06 A2999 RMK A01 T01420055  RH  056%=      5-min Rain = 0
KBO1 150413Z 23013KT 14/06 A2999 RMK A01 T01420055  RH  056%=      5-min Rain = 0
KBO1 150414Z 23013KT 14/06 A2999 RMK A01 T01420055  RH  056%=      5-min Rain = 0
KBO1 150415Z 23013KT 14/06 A2999 RMK A01 T01420055  RH  056%=      5-min Rain = 0
KBO1 150416Z 23013KT 14/06 A2999 RMK A01 T01420055  RH  056%=      5-min Rain = 0
KBO1 150417Z 23013KT 14/05 A2999 RMK A01 T01430054  RH  055%=      5-min Rain = 0
KBO1 150418Z 23014KT 14/05 A2999 RMK A01 T01440054  RH  055%=      5-min Rain = 0
KBO1 150419Z 23014KT 15/05 A2999 RMK A01 T01450054  RH  054%=      5-min Rain = 0
KBO1 150420Z 23015KT 15/06 A2999 RMK A01 T01460055  RH  054%=      5-min Rain = 0
KBO1 150421Z 23014KT 15/05 A2999 RMK A01 T01480054  RH  053%=      5-min Rain = 0
KBO1 150422Z 23014KT 15/05 A2999 RMK A01 T01480054  RH  053%=      5-min Rain = 0
KBO1 150423Z 23015KT 15/06 A2999 RMK A01 T01490055  RH  053%=      5-min Rain = 0
KBO1 150424Z 23015KT 15/05 A2999 RMK A01 T01490054  RH  053%=      5-min Rain = 0
KBO1 150425Z 23014KT 15/05 A30 RMK A01 T01480054  RH  053%=      5-min Rain = 0
KBO1 150426Z 23015KT 15/05 A30 RMK A01 T01490054  RH  053%=      5-min Rain = 0
KBO1 150427Z 23014KT 15/06 A30 RMK A01 T01490055  RH  053%=      5-min Rain = 0
KBO1 150428Z 23013KT 15/05 A30 RMK A01 T01480054  RH  053%=      5-min Rain = 0
KBO1 150429Z 23014KT 15/05 A30 RMK A01 T01480054  RH  053%=      5-min Rain = 0
KBO1 150430Z 23014KT 15/05 A30 RMK A01 T01480053  RH  053%=      5-min Rain = 0
KBO1 150431Z 23014KT 15/05 A30 RMK A01 T01490054  RH  053%=      5-min Rain = 0
KBO1 150432Z 23015KT 15/05 A30 RMK A01 T01490054  RH  053%=      5-min Rain = 0
KBO1 150433Z 23014KT 15/05 A30 RMK A01 T01490053  RH  053%=      5-min Rain = 0
KBO1 150434Z 23014KT 15/05 A30 RMK A01 T01500054  RH  053%=      5-min Rain = 0
KBO1 150435Z 23013KT 15/05 A30 RMK A01 T01500054  RH  053%=      5-min Rain = 0
KBO1 150436Z 23013KT 15/05 A30 RMK A01 T01500054  RH  053%=      5-min Rain = 0
KBO1 150437Z 23013KT 15/05 A30 RMK A01 T01500054  RH  053%=      5-min Rain = 0
KBO1 150438Z 23013KT 15/05 A30 RMK A01 T01500054  RH  053%=      5-min Rain = 0
KBO1 150439Z 23011KT 15/05 A30 RMK A01 T01500054  RH  053%=      5-min Rain = 0
KBO1 150440Z 23012KT 15/05 A30 RMK A01 T01490054  RH  053%=      5-min Rain = 0
KBO1 150441Z 23012KT 15/05 A30 RMK A01 T01480054  RH  053%=      5-min Rain = 0
KBO1 150442Z 23012KT 15/05 A30 RMK A01 T01470054  RH  054%=      5-min Rain = 0
KBO1 150443Z 23012KT 15/05 A30 RMK A01 T01470054  RH  054%=      5-min Rain = 0
KBO1 150444Z 23012KT 15/05 A30 RMK A01 T01470054  RH  054%=      5-min Rain = 0
KBO1 150445Z 23012KT 15/05 A30 RMK A01 T01460054  RH  054%=      5-min Rain = 0
KBO1 150446Z 23012KT 15/05 A30 RMK A01 T01450054  RH  054%=      5-min Rain = 0
KBO1 150447Z 23012KT 14/05 A30 RMK A01 T01440054  RH  055%=      5-min Rain = 0
KBO1 150448Z 23012KT 14/05 A30 RMK A01 T01440054  RH  055%=      5-min Rain = 0
KBO1 150449Z 23013KT 14/05 A30 RMK A01 T01440054  RH  055%=      5-min Rain = 0
KBO1 150450Z 24012KT 14/06 A30 RMK A01 T01440055  RH  055%=      5-min Rain = 0
KBO1 150451Z 23013KT 14/06 A30 RMK A01 T01440055  RH  055%=      5-min Rain = 0
KBO1 150452Z 23013KT 14/06 A30 RMK A01 T01440055  RH  055%=      5-min Rain = 0
KBO1 150453Z 23013KT 15/06 A30 RMK A01 T01450055  RH  055%=      5-min Rain = 0
KBO1 150454Z 23013KT 15/06 A30 RMK A01 T01470055  RH  054%=      5-min Rain = 0
KBO1 150455Z 23012KT 15/06 A30 RMK A01 T01480055  RH  054%=      5-min Rain = 0
KBO1 150456Z 23012KT 15/06 A3001 RMK A01 T01490056  RH  054%=      5-min Rain = 0
KBO1 150457Z 23012KT 15/06 A3001 RMK A01 T01490056  RH  054%=      5-min Rain = 0
KBO1 150458Z 24010KT 15/06 A3001 RMK A01 T01490056  RH  054%=      5-min Rain = 0
KBO1 150459Z 24010KT 15/06 A3001 RMK A01 T01480056  RH  054%=      5-min Rain = 0

Page generated in 0.0706 seconds.